Time,TemperatureF,DewpointF,PressureIn,WindDirection,WindDirectionDegrees,WindSpeedMPH,WindSpeedGustMPH,Humidity,HourlyPrecipIn,Conditions,Clouds,dailyrainin,SoftwareType,DateUTC
2013-02-21 00:00:00,73.2,63.0,30.07,East,96,10.5,11.1,72,0.00,,,0.00,TxWx,2013-02-21 05:00:00,
2013-02-21 00:01:00,73.1,63.0,30.07,ESE,118,7.4,7.4,72,0.00,,,0.00,TxWx,2013-02-21 05:01:00,
2013-02-21 00:05:00,73.1,64.0,30.07,ESE,118,7.4,8.7,73,0.00,,,0.00,TxWx,2013-02-21 05:05:00,
2013-02-21 00:06:00,73.2,64.0,30.07,ESE,118,8.0,8.7,73,0.00,,,0.00,TxWx,2013-02-21 05:06:00,
2013-02-21 00:07:00,73.3,64.0,30.07,SE,141,6.2,6.2,73,0.00,,,0.00,TxWx,2013-02-21 05:07:00,
2013-02-21 00:10:00,73.2,64.0,30.07,SE,141,7.4,7.4,74,0.00,,,0.00,TxWx,2013-02-21 05:10:00,
2013-02-21 00:12:00,73.3,64.0,30.06,East,96,8.7,8.7,74,0.00,,,0.00,TxWx,2013-02-21 05:12:00,
2013-02-21 00:16:00,73.1,64.0,30.06,SE,141,9.3,9.3,74,0.00,,,0.00,TxWx,2013-02-21 05:16:00,
2013-02-21 00:17:00,73.1,64.0,30.06,SSE,163,8.7,8.7,74,0.00,,,0.00,TxWx,2013-02-21 05:17:00,
2013-02-21 00:22:00,73.0,64.0,30.06,SE,141,9.9,10.5,75,0.00,,,0.00,TxWx,2013-02-21 05:22:00,
2013-02-21 00:27:00,73.0,64.0,30.06,SE,141,8.0,9.9,74,0.00,,,0.00,TxWx,2013-02-21 05:27:00,
2013-02-21 00:28:00,73.0,64.0,30.06,SE,141,8.7,9.9,74,0.00,,,0.00,TxWx,2013-02-21 05:28:00,
2013-02-21 00:29:00,73.4,64.0,30.06,ESE,118,8.0,8.0,75,0.00,,,0.00,TxWx,2013-02-21 05:29:00,
2013-02-21 00:33:00,72.9,64.0,30.05,SE,141,11.1,12.4,75,0.00,,,0.00,TxWx,2013-02-21 05:33:00,
2013-02-21 00:36:00,73.0,64.0,30.06,ESE,118,9.3,9.3,75,0.00,,,0.00,TxWx,2013-02-21 05:36:00,
2013-02-21 00:39:00,73.2,64.0,30.06,ESE,118,8.0,9.3,75,0.00,,,0.00,TxWx,2013-02-21 05:39:00,
2013-02-21 00:44:00,73.3,64.0,30.06,SE,141,7.4,8.0,74,0.00,,,0.00,TxWx,2013-02-21 05:44:00,
2013-02-21 00:45:00,73.2,64.0,30.06,SE,141,6.2,6.8,74,0.00,,,0.00,TxWx,2013-02-21 05:45:00,
2013-02-21 00:49:00,73.4,65.0,30.07,SE,141,6.8,6.8,75,0.00,,,0.00,TxWx,2013-02-21 05:49:00,
2013-02-21 00:50:00,73.1,64.0,30.06,ESE,118,8.0,8.0,75,0.00,,,0.00,TxWx,2013-02-21 05:50:00,
2013-02-21 00:51:00,72.8,64.0,30.06,SE,141,9.3,9.3,74,0.00,,,0.00,TxWx,2013-02-21 05:51:00,
2013-02-21 00:54:00,73.2,64.0,30.06,SE,141,7.4,7.4,75,0.00,,,0.00,TxWx,2013-02-21 05:54:00,
2013-02-21 00:55:00,73.3,65.0,30.06,SE,141,6.2,7.4,75,0.00,,,0.00,TxWx,2013-02-21 05:55:00,
2013-02-21 00:56:00,73.0,64.0,30.06,ESE,118,8.0,9.3,75,0.00,,,0.00,TxWx,2013-02-21 05:56:00,
2013-02-21 00:57:00,73.2,65.0,30.06,ESE,118,7.4,8.0,75,0.00,,,0.00,TxWx,2013-02-21 05:57:00,
2013-02-21 01:00:00,72.9,64.0,30.06,ESE,118,8.0,8.0,75,0.00,,,0.00,TxWx,2013-02-21 06:00:00,
2013-02-21 01:01:00,73.1,64.0,30.06,SE,141,6.2,6.8,75,0.00,,,0.00,TxWx,2013-02-21 06:01:00,
2013-02-21 01:03:00,73.4,65.0,30.07,ESE,118,5.6,6.2,76,0.00,,,0.00,TxWx,2013-02-21 06:03:00,
2013-02-21 01:05:00,73.0,65.0,30.07,East,96,6.2,6.2,75,0.00,,,0.00,TxWx,2013-02-21 06:05:00,
2013-02-21 01:06:00,72.8,64.0,30.07,ESE,118,6.2,6.8,75,0.00,,,0.00,TxWx,2013-02-21 06:06:00,
2013-02-21 01:09:00,73.0,64.0,30.06,ESE,118,5.6,5.6,75,0.00,,,0.00,TxWx,2013-02-21 06:09:00,
2013-02-21 01:10:00,73.1,64.0,30.06,SE,141,5.0,5.6,75,0.00,,,0.00,TxWx,2013-02-21 06:10:00,
2013-02-21 01:12:00,73.3,64.0,30.06,ESE,118,6.2,6.2,75,0.00,,,0.00,TxWx,2013-02-21 06:12:00,
2013-02-21 01:15:00,72.8,64.0,30.06,East,96,7.4,7.4,74,0.00,,,0.00,TxWx,2013-02-21 06:15:00,
2013-02-21 01:16:00,72.8,64.0,30.06,ESE,118,5.6,5.6,74,0.00,,,0.00,TxWx,2013-02-21 06:16:00,
2013-02-21 01:17:00,72.9,64.0,30.06,East,96,5.6,5.6,74,0.00,,,0.00,TxWx,2013-02-21 06:17:00,
2013-02-21 01:19:00,73.1,64.0,30.05,ESE,118,5.6,5.6,74,0.00,,,0.00,TxWx,2013-02-21 06:19:00,
2013-02-21 01:21:00,72.9,64.0,30.06,ESE,118,6.2,6.8,73,0.00,,,0.00,TxWx,2013-02-21 06:21:00,
2013-02-21 01:22:00,72.8,64.0,30.06,East,96,6.8,6.8,73,0.00,,,0.00,TxWx,2013-02-21 06:22:00,
2013-02-21 01:27:00,73.3,64.0,30.06,ESE,118,5.6,5.6,74,0.00,,,0.00,TxWx,2013-02-21 06:27:00,
2013-02-21 01:28:00,73.1,64.0,30.05,ESE,118,5.0,5.6,74,0.00,,,0.00,TxWx,2013-02-21 06:28:00,
2013-02-21 01:29:00,73.1,64.0,30.06,ESE,118,7.4,7.4,74,0.00,,,0.00,TxWx,2013-02-21 06:29:00,
2013-02-21 01:33:00,73.3,64.0,30.06,East,96,6.2,6.2,74,0.00,,,0.00,TxWx,2013-02-21 06:33:00,
2013-02-21 01:34:00,73.0,64.0,30.06,SE,141,6.2,6.8,73,0.00,,,0.00,TxWx,2013-02-21 06:34:00,
2013-02-21 01:35:00,73.0,64.0,30.06,ESE,118,6.8,7.4,73,0.00,,,0.00,TxWx,2013-02-21 06:35:00,
2013-02-21 01:40:00,73.1,64.0,30.05,ESE,118,6.8,7.4,74,0.00,,,0.00,TxWx,2013-02-21 06:40:00,
2013-02-21 01:41:00,72.9,64.0,30.05,ESE,118,8.7,8.7,74,0.00,,,0.00,TxWx,2013-02-21 06:41:00,
2013-02-21 01:42:00,73.2,64.0,30.05,ESE,118,6.8,6.8,74,0.00,,,0.00,TxWx,2013-02-21 06:42:00,
2013-02-21 01:47:00,73.2,64.0,30.04,ESE,118,5.6,5.6,74,0.00,,,0.00,TxWx,2013-02-21 06:47:00,
2013-02-21 01:48:00,73.3,64.0,30.05,SE,141,6.2,6.2,74,0.00,,,0.00,TxWx,2013-02-21 06:48:00,
2013-02-21 01:51:00,73.2,64.0,30.04,SE,141,6.2,7.4,74,0.00,,,0.00,TxWx,2013-02-21 06:51:00,
2013-02-21 01:53:00,73.0,64.0,30.04,East,96,7.4,7.4,74,0.00,,,0.00,TxWx,2013-02-21 06:53:00,
2013-02-21 01:54:00,73.0,64.0,30.04,ESE,118,6.2,6.2,74,0.00,,,0.00,TxWx,2013-02-21 06:54:00,
2013-02-21 01:56:00,73.2,64.0,30.04,ESE,118,6.2,6.8,74,0.00,,,0.00,TxWx,2013-02-21 06:56:00,
2013-02-21 01:58:00,73.3,64.0,30.04,East,96,5.6,6.8,75,0.00,,,0.00,TxWx,2013-02-21 06:58:00,
2013-02-21 01:59:00,73.4,64.0,30.04,ESE,118,6.8,6.8,75,0.00,,,0.00,TxWx,2013-02-21 06:59:00,
2013-02-21 02:00:00,73.3,65.0,30.04,ESE,118,7.4,7.4,75,0.00,,,0.00,TxWx,2013-02-21 07:00:00,
2013-02-21 02:01:00,73.0,64.0,30.04,ESE,118,6.2,6.2,75,0.00,,,0.00,TxWx,2013-02-21 07:01:00,
2013-02-21 02:05:00,73.1,64.0,30.04,SE,141,6.8,6.8,74,0.00,,,0.00,TxWx,2013-02-21 07:05:00,
2013-02-21 02:06:00,73.3,64.0,30.04,ESE,118,6.2,6.2,74,0.00,,,0.00,TxWx,2013-02-21 07:06:00,
2013-02-21 02:07:00,73.2,64.0,30.04,ESE,118,8.0,8.0,75,0.00,,,0.00,TxWx,2013-02-21 07:07:00,
2013-02-21 02:11:00,73.1,64.0,30.03,SE,141,6.8,7.4,75,0.00,,,0.00,TxWx,2013-02-21 07:11:00,
2013-02-21 02:12:00,73.2,64.0,30.03,SE,141,7.4,7.4,75,0.00,,,0.00,TxWx,2013-02-21 07:12:00,
2013-02-21 02:14:00,73.0,64.0,30.03,SE,141,6.8,6.8,75,0.00,,,0.00,TxWx,2013-02-21 07:14:00,
2013-02-21 02:18:00,72.9,65.0,30.03,ESE,118,7.4,8.0,76,0.00,,,0.00,TxWx,2013-02-21 07:18:00,
2013-02-21 02:20:00,73.2,65.0,30.03,SE,141,5.6,7.4,76,0.00,,,0.00,TxWx,2013-02-21 07:20:00,
2013-02-21 02:21:00,73.2,65.0,30.03,ESE,118,8.0,8.0,76,0.00,,,0.00,TxWx,2013-02-21 07:21:00,
2013-02-21 02:23:00,73.1,65.0,30.04,ESE,118,5.6,6.2,76,0.00,,,0.00,TxWx,2013-02-21 07:23:00,
2013-02-21 02:26:00,73.2,65.0,30.03,ESE,118,4.3,5.0,76,0.00,,,0.00,TxWx,2013-02-21 07:26:00,
2013-02-21 02:28:00,73.2,65.0,30.03,SE,141,5.6,6.2,77,0.00,,,0.00,TxWx,2013-02-21 07:28:00,
2013-02-21 02:29:00,73.0,65.0,30.03,SE,141,5.6,6.2,77,0.00,,,0.00,TxWx,2013-02-21 07:29:00,
2013-02-21 02:31:00,73.1,66.0,30.03,SE,141,7.4,7.4,78,0.00,,,0.00,TxWx,2013-02-21 07:31:00,
2013-02-21 02:33:00,72.9,65.0,30.03,ESE,118,6.8,8.0,77,0.00,,,0.00,TxWx,2013-02-21 07:33:00,
2013-02-21 02:36:00,72.8,65.0,30.02,ESE,118,7.4,7.4,77,0.00,,,0.00,TxWx,2013-02-21 07:36:00,
2013-02-21 02:37:00,73.0,66.0,30.02,ESE,118,6.2,6.8,78,0.00,,,0.00,TxWx,2013-02-21 07:37:00,
2013-02-21 02:39:00,72.9,66.0,30.02,SE,141,6.2,6.2,78,0.00,,,0.00,TxWx,2013-02-21 07:39:00,
2013-02-21 02:41:00,73.1,66.0,30.02,ESE,118,6.2,7.4,78,0.00,,,0.00,TxWx,2013-02-21 07:41:00,
2013-02-21 02:42:00,73.0,66.0,30.02,SE,141,6.8,8.0,78,0.00,,,0.00,TxWx,2013-02-21 07:42:00,
2013-02-21 02:44:00,72.5,64.0,30.02,SE,141,6.2,6.8,77,0.00,,,0.00,TxWx,2013-02-21 07:44:00,
2013-02-21 02:47:00,72.8,65.0,30.02,ESE,118,6.8,7.4,77,0.00,,,0.00,TxWx,2013-02-21 07:47:00,
2013-02-21 02:48:00,72.9,65.0,30.02,SE,141,6.2,6.2,77,0.00,,,0.00,TxWx,2013-02-21 07:48:00,
2013-02-21 02:49:00,73.1,65.0,30.02,SE,141,6.2,6.2,77,0.00,,,0.00,TxWx,2013-02-21 07:49:00,
2013-02-21 02:52:00,72.9,65.0,30.02,ESE,118,6.8,8.7,76,0.00,,,0.00,TxWx,2013-02-21 07:52:00,
2013-02-21 02:53:00,72.9,65.0,30.02,SE,141,6.8,7.4,76,0.00,,,0.00,TxWx,2013-02-21 07:53:00,
2013-02-21 02:54:00,73.0,65.0,30.02,SSE,163,7.4,7.4,76,0.00,,,0.00,TxWx,2013-02-21 07:54:00,
2013-02-21 02:56:00,73.0,65.0,30.02,SE,141,5.6,6.8,76,0.00,,,0.00,TxWx,2013-02-21 07:56:00,
2013-02-21 02:58:00,73.2,65.0,30.02,ESE,118,6.2,6.8,76,0.00,,,0.00,TxWx,2013-02-21 07:58:00,
2013-02-21 02:59:00,73.4,65.0,30.02,SE,141,6.2,6.2,76,0.00,,,0.00,TxWx,2013-02-21 07:59:00,
2013-02-21 03:00:00,73.0,65.0,30.02,SE,141,7.4,7.4,76,0.00,,,0.00,TxWx,2013-02-21 08:00:00,
2013-02-21 03:03:00,73.2,65.0,30.02,SE,141,6.2,6.2,77,0.00,,,0.00,TxWx,2013-02-21 08:03:00,
2013-02-21 03:04:00,73.2,65.0,30.02,SE,141,7.4,8.0,77,0.00,,,0.00,TxWx,2013-02-21 08:04:00,
2013-02-21 03:08:00,73.1,65.0,30.02,SSE,163,6.2,6.2,77,0.00,,,0.00,TxWx,2013-02-21 08:08:00,
2013-02-21 03:09:00,73.0,65.0,30.01,SE,141,7.4,7.4,77,0.00,,,0.00,TxWx,2013-02-21 08:09:00,
2013-02-21 03:10:00,72.8,65.0,30.02,SE,141,9.3,9.3,77,0.00,,,0.00,TxWx,2013-02-21 08:10:00,
2013-02-21 03:14:00,73.1,65.0,30.02,SE,141,8.7,8.7,77,0.00,,,0.00,TxWx,2013-02-21 08:14:00,
2013-02-21 03:15:00,73.0,65.0,30.01,ESE,118,6.2,7.4,76,0.00,,,0.00,TxWx,2013-02-21 08:15:00,
2013-02-21 03:20:00,73.1,65.0,30.01,SE,141,8.0,8.0,76,0.00,,,0.00,TxWx,2013-02-21 08:20:00,
2013-02-21 03:21:00,73.2,65.0,30.01,SE,141,7.4,7.4,77,0.00,,,0.00,TxWx,2013-02-21 08:21:00,
2013-02-21 03:23:00,73.1,65.0,30.01,ESE,118,5.0,5.0,77,0.00,,,0.00,TxWx,2013-02-21 08:23:00,
2013-02-21 03:26:00,72.9,65.0,30.01,SE,141,8.0,8.7,76,0.00,,,0.00,TxWx,2013-02-21 08:26:00,
2013-02-21 03:27:00,72.8,65.0,30.01,SE,141,8.0,9.3,76,0.00,,,0.00,TxWx,2013-02-21 08:27:00,
2013-02-21 03:29:00,73.3,65.0,30.01,SE,141,6.2,6.2,77,0.00,,,0.00,TxWx,2013-02-21 08:29:00,
2013-02-21 03:32:00,73.3,65.0,30.01,ESE,118,6.8,6.8,77,0.00,,,0.00,TxWx,2013-02-21 08:32:00,
2013-02-21 03:33:00,72.9,65.0,30.01,SE,141,6.8,7.4,76,0.00,,,0.00,TxWx,2013-02-21 08:33:00,
2013-02-21 03:34:00,72.9,65.0,30.01,SE,141,9.9,9.9,76,0.00,,,0.00,TxWx,2013-02-21 08:34:00,
2013-02-21 03:38:00,73.1,65.0,30.00,SSE,163,7.4,7.4,76,0.00,,,0.00,TxWx,2013-02-21 08:38:00,
2013-02-21 03:40:00,73.0,65.0,30.01,SE,141,5.6,5.6,76,0.00,,,0.00,TxWx,2013-02-21 08:40:00,
2013-02-21 03:41:00,72.9,65.0,30.01,SE,141,6.2,7.4,76,0.00,,,0.00,TxWx,2013-02-21 08:41:00,
2013-02-21 03:43:00,73.1,65.0,30.01,South,186,6.8,6.8,76,0.00,,,0.00,TxWx,2013-02-21 08:43:00,
2013-02-21 03:44:00,73.1,65.0,30.01,SE,141,5.6,6.2,76,0.00,,,0.00,TxWx,2013-02-21 08:44:00,
2013-02-21 03:46:00,73.0,65.0,30.01,SE,141,5.6,6.2,76,0.00,,,0.00,TxWx,2013-02-21 08:46:00,
2013-02-21 03:49:00,73.2,65.0,30.01,SE,141,4.3,4.3,76,0.00,,,0.00,TxWx,2013-02-21 08:49:00,
2013-02-21 03:50:00,72.9,65.0,30.01,East,96,5.6,6.2,76,0.00,,,0.00,TxWx,2013-02-21 08:50:00,
2013-02-21 03:52:00,73.0,65.0,30.01,SE,141,5.0,5.0,76,0.00,,,0.00,TxWx,2013-02-21 08:52:00,
2013-02-21 03:54:00,73.2,65.0,30.01,SE,141,6.2,6.2,76,0.00,,,0.00,TxWx,2013-02-21 08:54:00,
2013-02-21 03:56:00,73.1,65.0,30.02,SE,141,5.6,6.2,76,0.00,,,0.00,TxWx,2013-02-21 08:56:00,
2013-02-21 03:59:00,73.1,65.0,30.01,SE,141,6.8,7.4,76,0.00,,,0.00,TxWx,2013-02-21 08:59:00,
2013-02-21 04:01:00,73.1,65.0,30.01,SE,141,6.8,6.8,76,0.00,,,0.00,TxWx,2013-02-21 09:01:00,
2013-02-21 04:03:00,73.2,65.0,30.01,SE,141,6.8,6.8,76,0.00,,,0.00,TxWx,2013-02-21 09:03:00,
2013-02-21 04:05:00,73.1,65.0,30.01,SE,141,7.4,7.4,76,0.00,,,0.00,TxWx,2013-02-21 09:05:00,
2013-02-21 04:06:00,73.0,65.0,30.01,ESE,118,6.2,6.2,75,0.00,,,0.00,TxWx,2013-02-21 09:06:00,
2013-02-21 04:07:00,73.2,65.0,30.01,SE,141,6.2,6.2,75,0.00,,,0.00,TxWx,2013-02-21 09:07:00,
2013-02-21 04:09:00,73.2,65.0,30.01,SE,141,6.2,6.2,75,0.00,,,0.00,TxWx,2013-02-21 09:09:00,
2013-02-21 04:10:00,73.3,65.0,30.01,SE,141,5.6,5.6,75,0.00,,,0.00,TxWx,2013-02-21 09:10:00,
2013-02-21 04:11:00,73.4,65.0,30.01,SE,141,8.0,8.0,75,0.00,,,0.00,TxWx,2013-02-21 09:11:00,
2013-02-21 04:14:00,73.2,64.0,30.02,SE,141,6.8,6.8,75,0.00,,,0.00,TxWx,2013-02-21 09:14:00,
2013-02-21 04:15:00,73.3,64.0,30.02,SE,141,8.0,8.0,74,0.00,,,0.00,TxWx,2013-02-21 09:15:00,
2013-02-21 04:18:00,73.5,64.0,30.02,SE,141,5.6,6.2,75,0.00,,,0.00,TxWx,2013-02-21 09:18:00,
2013-02-21 04:19:00,73.6,66.0,30.02,ESE,118,6.8,6.8,75,0.00,,,0.00,TxWx,2013-02-21 09:19:00,
2013-02-21 04:20:00,73.2,64.0,30.01,ESE,118,7.4,7.4,75,0.00,,,0.00,TxWx,2013-02-21 09:20:00,
2013-02-21 04:26:00,73.4,64.0,30.02,SE,141,6.2,6.2,74,0.00,,,0.00,TxWx,2013-02-21 09:26:00,
2013-02-21 04:27:00,73.4,64.0,30.02,ESE,118,6.2,6.8,74,0.00,,,0.00,TxWx,2013-02-21 09:27:00,
2013-02-21 04:28:00,73.3,64.0,30.02,SE,141,6.2,6.8,74,0.00,,,0.00,TxWx,2013-02-21 09:28:00,
2013-02-21 04:31:00,73.5,65.0,30.03,SE,141,6.2,7.4,75,0.00,,,0.00,TxWx,2013-02-21 09:31:00,
2013-02-21 04:33:00,73.4,65.0,30.03,ESE,118,6.8,6.8,75,0.00,,,0.00,TxWx,2013-02-21 09:33:00,
2013-02-21 04:34:00,73.4,65.0,30.03,ESE,118,6.8,6.8,75,0.00,,,0.00,TxWx,2013-02-21 09:34:00,
2013-02-21 04:35:00,73.3,64.0,30.03,SE,141,6.8,6.8,75,0.00,,,0.00,TxWx,2013-02-21 09:35:00,
2013-02-21 04:37:00,73.4,64.0,30.03,SE,141,5.6,5.6,75,0.00,,,0.00,TxWx,2013-02-21 09:37:00,
2013-02-21 04:39:00,73.5,65.0,30.03,ESE,118,6.2,6.2,75,0.00,,,0.00,TxWx,2013-02-21 09:39:00,
2013-02-21 04:40:00,73.3,65.0,30.03,SE,141,6.2,6.2,75,0.00,,,0.00,TxWx,2013-02-21 09:40:00,
2013-02-21 04:42:00,73.3,65.0,30.03,ESE,118,6.2,6.2,75,0.00,,,0.00,TxWx,2013-02-21 09:42:00,
2013-02-21 04:44:00,73.4,64.0,30.03,ESE,118,6.8,8.0,75,0.00,,,0.00,TxWx,2013-02-21 09:44:00,
2013-02-21 04:45:00,73.4,64.0,30.03,SE,141,6.8,8.7,75,0.00,,,0.00,TxWx,2013-02-21 09:45:00,
2013-02-21 04:49:00,73.4,65.0,30.03,ESE,118,8.0,8.0,75,0.00,,,0.00,TxWx,2013-02-21 09:49:00,
2013-02-21 04:50:00,73.3,64.0,30.03,ESE,118,6.8,6.8,75,0.00,,,0.00,TxWx,2013-02-21 09:50:00,
2013-02-21 04:54:00,73.4,64.0,30.03,SE,141,7.4,7.4,75,0.00,,,0.00,TxWx,2013-02-21 09:54:00,
2013-02-21 04:55:00,73.3,64.0,30.03,SE,141,7.4,7.4,75,0.00,,,0.00,TxWx,2013-02-21 09:55:00,
2013-02-21 04:57:00,73.5,64.0,30.03,SE,141,6.2,6.8,75,0.00,,,0.00,TxWx,2013-02-21 09:57:00,
2013-02-21 05:00:00,73.5,65.0,30.03,ESE,118,5.6,5.6,75,0.00,,,0.00,TxWx,2013-02-21 10:00:00,
2013-02-21 05:01:00,73.3,64.0,30.03,SE,141,6.8,6.8,75,0.00,,,0.00,TxWx,2013-02-21 10:01:00,
2013-02-21 05:02:00,73.6,66.0,30.03,ESE,118,6.8,6.8,75,0.00,,,0.00,TxWx,2013-02-21 10:02:00,
2013-02-21 05:05:00,73.5,65.0,30.03,ESE,118,6.2,6.2,75,0.00,,,0.00,TxWx,2013-02-21 10:05:00,
2013-02-21 05:06:00,73.5,65.0,30.03,SE,141,6.2,6.2,75,0.00,,,0.00,TxWx,2013-02-21 10:06:00,
2013-02-21 05:08:00,73.3,65.0,30.03,ESE,118,6.2,6.2,75,0.00,,,0.00,TxWx,2013-02-21 10:08:00,
2013-02-21 05:10:00,73.3,65.0,30.04,SE,141,6.8,7.4,75,0.00,,,0.00,TxWx,2013-02-21 10:10:00,
2013-02-21 05:11:00,73.3,65.0,30.03,ESE,118,6.8,6.8,75,0.00,,,0.00,TxWx,2013-02-21 10:11:00,
2013-02-21 05:12:00,73.3,65.0,30.03,ESE,118,5.6,6.2,75,0.00,,,0.00,TxWx,2013-02-21 10:12:00,
2013-02-21 05:13:00,73.5,65.0,30.04,East,96,6.2,6.8,75,0.00,,,0.00,TxWx,2013-02-21 10:13:00,
2013-02-21 05:17:00,73.3,65.0,30.04,SE,141,5.6,6.8,75,0.00,,,0.00,TxWx,2013-02-21 10:17:00,
2013-02-21 05:18:00,73.4,65.0,30.04,ESE,118,6.8,6.8,75,0.00,,,0.00,TxWx,2013-02-21 10:18:00,
2013-02-21 05:22:00,73.4,65.0,30.03,ESE,118,6.2,6.2,75,0.00,,,0.00,TxWx,2013-02-21 10:22:00,
2013-02-21 05:23:00,73.5,65.0,30.03,SE,141,6.8,6.8,76,0.00,,,0.00,TxWx,2013-02-21 10:23:00,
2013-02-21 05:24:00,73.4,65.0,30.03,SE,141,6.2,6.8,76,0.00,,,0.00,TxWx,2013-02-21 10:24:00,
2013-02-21 05:26:00,73.2,65.0,30.03,ESE,118,5.6,7.4,75,0.00,,,0.00,TxWx,2013-02-21 10:26:00,
2013-02-21 05:28:00,73.3,65.0,30.03,ESE,118,5.6,5.6,75,0.00,,,0.00,TxWx,2013-02-21 10:28:00,
2013-02-21 05:29:00,73.4,65.0,30.03,ESE,118,6.2,6.8,76,0.00,,,0.00,TxWx,2013-02-21 10:29:00,
2013-02-21 05:31:00,73.5,66.0,30.03,East,96,6.8,6.8,76,0.00,,,0.00,TxWx,2013-02-21 10:31:00,
2013-02-21 05:33:00,73.5,65.0,30.04,SE,141,6.2,6.2,75,0.00,,,0.00,TxWx,2013-02-21 10:33:00,
2013-02-21 05:36:00,73.3,65.0,30.04,East,96,8.0,8.7,75,0.00,,,0.00,TxWx,2013-02-21 10:36:00,
2013-02-21 05:38:00,73.3,65.0,30.04,East,96,6.2,6.2,75,0.00,,,0.00,TxWx,2013-02-21 10:38:00,
2013-02-21 05:39:00,73.4,65.0,30.04,SE,141,6.8,6.8,75,0.00,,,0.00,TxWx,2013-02-21 10:39:00,
2013-02-21 05:43:00,73.3,64.0,30.04,ESE,118,5.6,6.2,75,0.00,,,0.00,TxWx,2013-02-21 10:43:00,
2013-02-21 05:44:00,73.4,64.0,30.04,SE,141,6.2,6.2,75,0.00,,,0.00,TxWx,2013-02-21 10:44:00,
2013-02-21 05:45:00,73.3,64.0,30.04,ESE,118,6.2,6.2,75,0.00,,,0.00,TxWx,2013-02-21 10:45:00,
2013-02-21 05:49:00,73.2,64.0,30.04,SE,141,6.8,6.8,74,0.00,,,0.00,TxWx,2013-02-21 10:49:00,
2013-02-21 05:50:00,73.4,64.0,30.04,SE,141,5.6,5.6,74,0.00,,,0.00,TxWx,2013-02-21 10:50:00,
2013-02-21 05:54:00,73.4,64.0,30.04,ESE,118,4.3,4.3,75,0.00,,,0.00,TxWx,2013-02-21 10:54:00,
2013-02-21 05:55:00,73.3,64.0,30.05,ESE,118,4.3,6.2,75,0.00,,,0.00,TxWx,2013-02-21 10:55:00,
2013-02-21 05:56:00,73.4,64.0,30.05,ESE,118,3.7,4.3,75,0.00,,,0.00,TxWx,2013-02-21 10:56:00,
2013-02-21 05:58:00,73.5,64.0,30.05,East,96,5.0,5.0,75,0.00,,,0.00,TxWx,2013-02-21 10:58:00,
2013-02-21 06:01:00,73.4,64.0,30.05,SE,141,6.8,6.8,75,0.00,,,0.00,TxWx,2013-02-21 11:01:00,
2013-02-21 06:02:00,73.2,64.0,30.05,ESE,118,6.8,6.8,75,0.00,,,0.00,TxWx,2013-02-21 11:02:00,
2013-02-21 06:03:00,73.3,64.0,30.05,ESE,118,7.4,7.4,75,0.00,,,0.00,TxWx,2013-02-21 11:03:00,
2013-02-21 06:07:00,73.4,65.0,30.05,SE,141,5.0,5.0,75,0.00,,,0.00,TxWx,2013-02-21 11:07:00,
2013-02-21 06:08:00,73.3,65.0,30.05,ESE,118,5.0,5.0,75,0.00,,,0.00,TxWx,2013-02-21 11:08:00,
2013-02-21 06:11:00,73.3,64.0,30.05,ESE,118,6.2,6.2,75,0.00,,,0.00,TxWx,2013-02-21 11:11:00,
2013-02-21 06:13:00,73.2,64.0,30.05,ESE,118,6.2,6.2,75,0.00,,,0.00,TxWx,2013-02-21 11:13:00,
2013-02-21 06:17:00,73.4,64.0,30.05,ESE,118,6.2,6.2,75,0.00,,,0.00,TxWx,2013-02-21 11:17:00,
2013-02-21 06:18:00,73.4,64.0,30.05,ESE,118,5.6,5.6,75,0.00,,,0.00,TxWx,2013-02-21 11:18:00,
2013-02-21 06:24:00,73.5,65.0,30.05,ESE,118,8.7,8.7,76,0.00,,,0.00,TxWx,2013-02-21 11:24:00,
2013-02-21 06:26:00,73.4,65.0,30.05,ESE,118,6.2,6.8,76,0.00,,,0.00,TxWx,2013-02-21 11:26:00,
2013-02-21 06:27:00,73.3,65.0,30.05,ESE,118,6.8,7.4,76,0.00,,,0.00,TxWx,2013-02-21 11:27:00,
2013-02-21 06:29:00,73.3,65.0,30.05,ESE,118,6.8,6.8,76,0.00,,,0.00,TxWx,2013-02-21 11:29:00,
2013-02-21 06:30:00,73.4,65.0,30.05,ESE,118,9.3,9.3,76,0.00,,,0.00,TxWx,2013-02-21 11:30:00,
2013-02-21 06:33:00,73.2,65.0,30.06,East,96,8.0,8.0,76,0.00,,,0.00,TxWx,2013-02-21 11:33:00,
2013-02-21 06:34:00,73.2,65.0,30.06,ESE,118,8.7,9.3,76,0.00,,,0.00,TxWx,2013-02-21 11:34:00,
2013-02-21 06:36:00,73.2,65.0,30.06,East,96,7.4,8.7,76,0.00,,,0.00,TxWx,2013-02-21 11:36:00,
2013-02-21 06:39:00,73.2,65.0,30.06,ESE,118,7.4,7.4,75,0.00,,,0.00,TxWx,2013-02-21 11:39:00,
2013-02-21 06:40:00,73.5,66.0,30.06,East,96,6.8,6.8,76,0.00,,,0.00,TxWx,2013-02-21 11:40:00,
2013-02-21 06:41:00,73.3,65.0,30.06,ESE,118,7.4,8.0,75,0.00,,,0.00,TxWx,2013-02-21 11:41:00,
2013-02-21 06:45:00,73.4,65.0,30.06,East,96,7.4,7.4,75,0.00,,,0.00,TxWx,2013-02-21 11:45:00,
2013-02-21 06:46:00,73.5,65.0,30.06,ESE,118,7.4,7.4,75,0.00,,,0.00,TxWx,2013-02-21 11:46:00,
2013-02-21 06:47:00,73.4,65.0,30.06,ESE,118,6.8,8.0,75,0.00,,,0.00,TxWx,2013-02-21 11:47:00,
2013-02-21 06:51:00,73.2,65.0,30.06,East,96,8.0,8.7,75,0.00,,,0.00,TxWx,2013-02-21 11:51:00,
2013-02-21 06:52:00,73.3,64.0,30.06,East,96,5.6,6.2,75,0.00,,,0.00,TxWx,2013-02-21 11:52:00,
2013-02-21 06:53:00,73.5,65.0,30.06,East,96,5.6,6.8,75,0.00,,,0.00,TxWx,2013-02-21 11:53:00,
2013-02-21 06:54:00,73.3,65.0,30.06,SE,141,6.2,6.8,75,0.00,,,0.00,TxWx,2013-02-21 11:54:00,
2013-02-21 06:56:00,73.5,65.0,30.07,ESE,118,6.2,6.2,75,0.00,,,0.00,TxWx,2013-02-21 11:56:00,
2013-02-21 06:58:00,73.5,65.0,30.06,ESE,118,6.2,6.2,75,0.00,,,0.00,TxWx,2013-02-21 11:58:00,
2013-02-21 06:59:00,73.4,64.0,30.06,ESE,118,7.4,7.4,75,0.00,,,0.00,TxWx,2013-02-21 11:59:00,
2013-02-21 07:02:00,73.5,64.0,30.07,ESE,118,6.2,6.2,75,0.00,,,0.00,TxWx,2013-02-21 12:02:00,
2013-02-21 07:03:00,73.4,64.0,30.07,ESE,118,6.8,6.8,75,0.00,,,0.00,TxWx,2013-02-21 12:03:00,
2013-02-21 07:07:00,73.4,64.0,30.07,ESE,118,6.2,6.2,74,0.00,,,0.00,TxWx,2013-02-21 12:07:00,
2013-02-21 07:09:00,73.5,64.0,30.07,East,96,8.0,8.0,74,0.00,,,0.00,TxWx,2013-02-21 12:09:00,
2013-02-21 07:12:00,73.6,65.0,30.07,ESE,118,6.2,6.2,75,0.00,,,0.00,TxWx,2013-02-21 12:12:00,
2013-02-21 07:13:00,73.4,64.0,30.07,ESE,118,5.6,6.8,75,0.00,,,0.00,TxWx,2013-02-21 12:13:00,
2013-02-21 07:15:00,73.5,65.0,30.07,ESE,118,6.8,7.4,75,0.00,,,0.00,TxWx,2013-02-21 12:15:00,
2013-02-21 07:17:00,73.4,64.0,30.07,East,96,7.4,7.4,75,0.00,,,0.00,TxWx,2013-02-21 12:17:00,
2013-02-21 07:21:00,73.5,65.0,30.07,ESE,118,5.6,6.2,74,0.00,,,0.00,TxWx,2013-02-21 12:21:00,
2013-02-21 07:22:00,73.6,65.0,30.07,ESE,118,7.4,7.4,74,0.00,,,0.00,TxWx,2013-02-21 12:22:00,
2013-02-21 07:23:00,73.8,65.0,30.07,ESE,118,6.8,6.8,74,0.00,,,0.00,TxWx,2013-02-21 12:23:00,
2013-02-21 07:28:00,73.8,65.0,30.07,ESE,118,5.6,5.6,73,0.00,,,0.00,TxWx,2013-02-21 12:28:00,
2013-02-21 07:29:00,73.8,65.0,30.07,ESE,118,8.0,8.0,73,0.00,,,0.00,TxWx,2013-02-21 12:29:00,
2013-02-21 07:31:00,73.6,64.0,30.07,ESE,118,6.8,8.0,72,0.00,,,0.00,TxWx,2013-02-21 12:31:00,
2013-02-21 07:34:00,73.8,65.0,30.07,East,96,6.8,7.4,73,0.00,,,0.00,TxWx,2013-02-21 12:34:00,
2013-02-21 07:35:00,73.8,65.0,30.07,East,96,9.3,9.9,73,0.00,,,0.00,TxWx,2013-02-21 12:35:00,
2013-02-21 07:38:00,73.6,65.0,30.07,ESE,118,9.9,9.9,73,0.00,,,0.00,TxWx,2013-02-21 12:38:00,
2013-02-21 07:39:00,73.8,65.0,30.07,East,96,6.2,7.4,73,0.00,,,0.00,TxWx,2013-02-21 12:39:00,
2013-02-21 07:40:00,73.8,65.0,30.08,ESE,118,7.4,8.0,74,0.00,,,0.00,TxWx,2013-02-21 12:40:00,
2013-02-21 07:43:00,73.7,65.0,30.08,SE,141,5.0,5.6,73,0.00,,,0.00,TxWx,2013-02-21 12:43:00,
2013-02-21 07:46:00,73.8,65.0,30.08,East,96,7.4,7.4,73,0.00,,,0.00,TxWx,2013-02-21 12:46:00,
2013-02-21 07:47:00,73.5,64.0,30.08,East,96,8.0,8.0,73,0.00,,,0.00,TxWx,2013-02-21 12:47:00,
2013-02-21 07:49:00,73.9,65.0,30.08,SE,141,5.0,5.0,74,0.00,,,0.00,TxWx,2013-02-21 12:49:00,
2013-02-21 07:50:00,73.9,65.0,30.08,ESE,118,5.6,6.2,74,0.00,,,0.00,TxWx,2013-02-21 12:50:00,
2013-02-21 07:53:00,73.5,64.0,30.08,ESE,118,6.8,7.4,74,0.00,,,0.00,TxWx,2013-02-21 12:53:00,
2013-02-21 07:54:00,73.7,65.0,30.08,ESE,118,5.6,6.8,73,0.00,,,0.00,TxWx,2013-02-21 12:54:00,
2013-02-21 07:56:00,73.6,65.0,30.08,ESE,118,6.2,7.4,73,0.00,,,0.00,TxWx,2013-02-21 12:56:00,
2013-02-21 07:59:00,73.8,65.0,30.08,ESE,118,6.2,6.2,73,0.00,,,0.00,TxWx,2013-02-21 12:59:00,
2013-02-21 08:00:00,74.0,65.0,30.08,East,96,5.0,5.0,73,0.00,,,0.00,TxWx,2013-02-21 13:00:00,
2013-02-21 08:01:00,73.9,65.0,30.08,ESE,118,7.4,8.0,73,0.00,,,0.00,TxWx,2013-02-21 13:01:00,
2013-02-21 08:03:00,74.1,65.0,30.08,East,96,6.8,6.8,73,0.00,,,0.00,TxWx,2013-02-21 13:03:00,
2013-02-21 08:06:00,74.3,65.0,30.08,ESE,118,6.2,6.8,74,0.00,,,0.00,TxWx,2013-02-21 13:06:00,
2013-02-21 08:07:00,74.5,65.0,30.08,East,96,8.7,8.7,74,0.00,,,0.00,TxWx,2013-02-21 13:07:00,
2013-02-21 08:11:00,74.1,64.0,30.08,ESE,118,8.0,9.3,72,0.00,,,0.00,TxWx,2013-02-21 13:11:00,
2013-02-21 08:12:00,74.3,64.0,30.08,East,96,9.3,9.3,72,0.00,,,0.00,TxWx,2013-02-21 13:12:00,
2013-02-21 08:13:00,74.4,64.0,30.09,East,96,9.9,9.9,72,0.00,,,0.00,TxWx,2013-02-21 13:13:00,
2013-02-21 08:18:00,74.5,64.0,30.09,East,96,9.3,9.3,72,0.00,,,0.00,TxWx,2013-02-21 13:18:00,
2013-02-21 08:19:00,74.4,64.0,30.09,East,96,7.4,7.4,72,0.00,,,0.00,TxWx,2013-02-21 13:19:00,
2013-02-21 08:20:00,74.4,64.0,30.09,East,96,8.0,8.0,71,0.00,,,0.00,TxWx,2013-02-21 13:20:00,
2013-02-21 08:23:00,74.4,64.0,30.09,East,96,7.4,8.0,71,0.00,,,0.00,TxWx,2013-02-21 13:23:00,
2013-02-21 08:24:00,74.4,64.0,30.09,ESE,118,6.2,7.4,71,0.00,,,0.00,TxWx,2013-02-21 13:24:00,
2013-02-21 08:26:00,74.9,66.0,30.09,East,96,6.2,6.8,73,0.00,,,0.00,TxWx,2013-02-21 13:26:00,
2013-02-21 08:28:00,74.6,66.0,30.09,East,96,7.4,7.4,73,0.00,,,0.00,TxWx,2013-02-21 13:28:00,
2013-02-21 08:31:00,74.3,64.0,30.09,East,96,9.3,9.3,72,0.00,,,0.00,TxWx,2013-02-21 13:31:00,
2013-02-21 08:32:00,74.6,65.0,30.09,ESE,118,6.8,7.4,72,0.00,,,0.00,TxWx,2013-02-21 13:32:00,
2013-02-21 08:34:00,74.4,64.0,30.09,ESE,118,6.2,6.2,72,0.00,,,0.00,TxWx,2013-02-21 13:34:00,
2013-02-21 08:36:00,74.5,65.0,30.10,East,96,6.2,6.2,72,0.00,,,0.00,TxWx,2013-02-21 13:36:00,
2013-02-21 08:38:00,74.5,65.0,30.10,East,96,6.2,6.2,71,0.00,,,0.00,TxWx,2013-02-21 13:38:00,
2013-02-21 08:39:00,74.6,65.0,30.10,ESE,118,5.6,5.6,72,0.00,,,0.00,TxWx,2013-02-21 13:39:00,
2013-02-21 08:41:00,74.1,64.0,30.10,East,96,7.4,8.0,71,0.00,,,0.00,TxWx,2013-02-21 13:41:00,
2013-02-21 08:42:00,74.4,64.0,30.10,ESE,118,6.2,6.8,72,0.00,,,0.00,TxWx,2013-02-21 13:42:00,
2013-02-21 08:44:00,74.4,65.0,30.10,East,96,6.8,7.4,73,0.00,,,0.00,TxWx,2013-02-21 13:44:00,
2013-02-21 08:46:00,74.6,66.0,30.10,ESE,118,5.6,6.2,73,0.00,,,0.00,TxWx,2013-02-21 13:46:00,
2013-02-21 08:47:00,74.5,66.0,30.10,ESE,118,6.8,6.8,73,0.00,,,0.00,TxWx,2013-02-21 13:47:00,
2013-02-21 08:49:00,74.0,64.0,30.10,ESE,118,7.4,8.0,72,0.00,,,0.00,TxWx,2013-02-21 13:49:00,
2013-02-21 08:50:00,74.1,64.0,30.10,East,96,7.4,7.4,72,0.00,,,0.00,TxWx,2013-02-21 13:50:00,
2013-02-21 08:51:00,74.3,64.0,30.10,SE,141,6.2,7.4,72,0.00,,,0.00,TxWx,2013-02-21 13:51:00,
2013-02-21 08:55:00,74.7,65.0,30.11,East,96,5.6,6.2,72,0.00,,,0.00,TxWx,2013-02-21 13:55:00,
2013-02-21 08:56:00,74.5,65.0,30.11,ESE,118,7.4,7.4,72,0.00,,,0.00,TxWx,2013-02-21 13:56:00,
2013-02-21 08:59:00,74.4,64.0,30.10,ESE,118,6.8,6.8,72,0.00,,,0.00,TxWx,2013-02-21 13:59:00,
2013-02-21 09:01:00,74.8,66.0,30.10,East,96,6.8,6.8,73,0.00,,,0.00,TxWx,2013-02-21 14:01:00,
2013-02-21 09:02:00,74.6,65.0,30.10,East,96,5.6,6.8,72,0.00,,,0.00,TxWx,2013-02-21 14:02:00,
2013-02-21 09:07:00,74.8,65.0,30.11,ESE,118,5.6,5.6,71,0.00,,,0.00,TxWx,2013-02-21 14:07:00,
2013-02-21 09:08:00,75.0,65.0,30.10,ESE,118,6.2,6.2,72,0.00,,,0.00,TxWx,2013-02-21 14:08:00,
2013-02-21 09:12:00,75.2,65.0,30.10,SE,141,7.4,7.4,72,0.00,,,0.00,TxWx,2013-02-21 14:12:00,
2013-02-21 09:14:00,75.0,65.0,30.10,ESE,118,7.4,7.4,72,0.00,,,0.00,TxWx,2013-02-21 14:14:00,
2013-02-21 09:16:00,74.7,65.0,30.10,East,96,7.4,7.4,71,0.00,,,0.00,TxWx,2013-02-21 14:16:00,
2013-02-21 09:18:00,74.7,65.0,30.10,ESE,118,6.8,6.8,70,0.00,,,0.00,TxWx,2013-02-21 14:18:00,
2013-02-21 09:21:00,74.6,65.0,30.10,ESE,118,8.0,8.0,71,0.00,,,0.00,TxWx,2013-02-21 14:21:00,
2013-02-21 09:23:00,74.4,64.0,30.10,East,96,8.0,8.0,71,0.00,,,0.00,TxWx,2013-02-21 14:23:00,
2013-02-21 09:26:00,74.6,65.0,30.10,ESE,118,7.4,7.4,72,0.00,,,0.00,TxWx,2013-02-21 14:26:00,
2013-02-21 09:27:00,74.5,65.0,30.10,ESE,118,8.7,9.3,72,0.00,,,0.00,TxWx,2013-02-21 14:27:00,
2013-02-21 09:28:00,74.8,65.0,30.10,ESE,118,6.8,6.8,72,0.00,,,0.00,TxWx,2013-02-21 14:28:00,
2013-02-21 09:29:00,74.8,65.0,30.11,ESE,118,6.8,6.8,72,0.00,,,0.00,TxWx,2013-02-21 14:29:00,
2013-02-21 09:31:00,74.8,65.0,30.10,ESE,118,6.8,6.8,72,0.00,,,0.00,TxWx,2013-02-21 14:31:00,
2013-02-21 09:34:00,74.6,65.0,30.10,ESE,118,6.8,7.4,72,0.00,,,0.00,TxWx,2013-02-21 14:34:00,
2013-02-21 09:37:00,74.8,65.0,30.10,East,96,5.0,5.0,72,0.00,,,0.00,TxWx,2013-02-21 14:37:00,
2013-02-21 09:39:00,74.8,65.0,30.10,ESE,118,5.0,6.2,72,0.00,,,0.00,TxWx,2013-02-21 14:39:00,
2013-02-21 09:42:00,74.7,65.0,30.11,ESE,118,5.6,5.6,72,0.00,,,0.00,TxWx,2013-02-21 14:42:00,
2013-02-21 09:44:00,74.4,64.0,30.11,ESE,118,5.6,6.2,72,0.00,,,0.00,TxWx,2013-02-21 14:44:00,
2013-02-21 09:45:00,74.6,65.0,30.11,SE,141,7.4,7.4,72,0.00,,,0.00,TxWx,2013-02-21 14:45:00,
2013-02-21 09:47:00,74.5,65.0,30.11,East,96,6.2,6.8,73,0.00,,,0.00,TxWx,2013-02-21 14:47:00,
2013-02-21 09:48:00,74.4,65.0,30.12,ESE,118,5.6,6.2,73,0.00,,,0.00,TxWx,2013-02-21 14:48:00,
2013-02-21 09:50:00,74.5,65.0,30.11,East,96,6.8,6.8,73,0.00,,,0.00,TxWx,2013-02-21 14:50:00,
2013-02-21 09:51:00,74.4,65.0,30.11,ESE,118,7.4,7.4,73,0.00,,,0.00,TxWx,2013-02-21 14:51:00,
2013-02-21 09:54:00,74.4,64.0,30.11,East,96,8.0,8.0,72,0.00,,,0.00,TxWx,2013-02-21 14:54:00,
2013-02-21 09:55:00,74.5,66.0,30.11,ESE,118,6.2,6.2,73,0.00,,,0.00,TxWx,2013-02-21 14:55:00,
2013-02-21 09:56:00,74.5,65.0,30.11,ESE,118,6.2,6.8,73,0.00,,,0.00,TxWx,2013-02-21 14:56:00,
2013-02-21 10:00:00,74.5,65.0,30.11,ESE,118,6.2,6.8,73,0.00,,,0.00,TxWx,2013-02-21 15:00:00,
2013-02-21 10:02:00,74.6,66.0,30.11,East,96,6.8,6.8,73,0.00,,,0.00,TxWx,2013-02-21 15:02:00,
2013-02-21 10:03:00,74.7,66.0,30.11,East,96,5.6,6.2,73,0.00,,,0.00,TxWx,2013-02-21 15:03:00,
2013-02-21 10:07:00,75.1,66.0,30.11,ESE,118,5.0,5.6,74,0.00,,,0.00,TxWx,2013-02-21 15:07:00,
2013-02-21 10:08:00,74.9,66.0,30.11,ESE,118,6.8,6.8,73,0.00,,,0.00,TxWx,2013-02-21 15:08:00,
2013-02-21 10:09:00,75.1,66.0,30.11,East,96,5.6,6.8,73,0.00,,,0.00,TxWx,2013-02-21 15:09:00,
2013-02-21 10:13:00,75.4,66.0,30.11,SE,141,6.2,6.2,73,0.00,,,0.00,TxWx,2013-02-21 15:13:00,
2013-02-21 10:14:00,75.4,65.0,30.11,ESE,118,5.0,5.0,72,0.00,,,0.00,TxWx,2013-02-21 15:14:00,
2013-02-21 10:15:00,75.8,66.0,30.11,ESE,118,4.3,4.3,72,0.00,,,0.00,TxWx,2013-02-21 15:15:00,
2013-02-21 10:16:00,75.3,65.0,30.11,ESE,118,5.0,5.0,72,0.00,,,0.00,TxWx,2013-02-21 15:16:00,
2013-02-21 10:18:00,75.7,66.0,30.11,ESE,118,5.0,5.6,72,0.00,,,0.00,TxWx,2013-02-21 15:18:00,
2013-02-21 10:21:00,75.4,65.0,30.11,SE,141,6.2,6.2,71,0.00,,,0.00,TxWx,2013-02-21 15:21:00,
2013-02-21 10:22:00,75.6,66.0,30.11,ESE,118,6.2,6.2,72,0.00,,,0.00,TxWx,2013-02-21 15:22:00,
2013-02-21 10:24:00,75.4,65.0,30.11,SSE,163,4.3,5.6,71,0.00,,,0.00,TxWx,2013-02-21 15:24:00,
2013-02-21 10:27:00,75.5,66.0,30.11,SE,141,4.3,4.3,71,0.00,,,0.00,TxWx,2013-02-21 15:27:00,
2013-02-21 10:29:00,76.0,66.0,30.11,ESE,118,4.3,4.3,72,0.00,,,0.00,TxWx,2013-02-21 15:29:00,
2013-02-21 10:30:00,75.6,66.0,30.11,SE,141,6.2,6.2,71,0.00,,,0.00,TxWx,2013-02-21 15:30:00,
2013-02-21 10:33:00,75.6,66.0,30.11,SSE,163,5.6,6.2,71,0.00,,,0.00,TxWx,2013-02-21 15:33:00,
2013-02-21 10:35:00,75.8,66.0,30.11,East,96,6.2,6.2,71,0.00,,,0.00,TxWx,2013-02-21 15:35:00,
2013-02-21 10:36:00,76.1,66.0,30.11,SE,141,5.0,6.2,72,0.00,,,0.00,TxWx,2013-02-21 15:36:00,
2013-02-21 10:40:00,76.0,66.0,30.12,SE,141,3.7,4.3,71,0.00,,,0.00,TxWx,2013-02-21 15:40:00,
2013-02-21 10:41:00,75.8,66.0,30.11,SE,141,5.0,5.6,71,0.00,,,0.00,TxWx,2013-02-21 15:41:00,
2013-02-21 10:44:00,75.8,66.0,30.11,SE,141,5.0,5.0,71,0.00,,,0.00,TxWx,2013-02-21 15:44:00,
2013-02-21 10:46:00,75.9,66.0,30.11,SE,141,5.0,5.0,71,0.00,,,0.00,TxWx,2013-02-21 15:46:00,
2013-02-21 10:50:00,75.6,65.0,30.11,SE,141,5.0,5.0,70,0.00,,,0.00,TxWx,2013-02-21 15:50:00,
2013-02-21 10:51:00,75.7,65.0,30.11,SE,141,6.2,6.8,70,0.00,,,0.00,TxWx,2013-02-21 15:51:00,
2013-02-21 10:52:00,75.7,66.0,30.11,East,96,4.3,5.0,71,0.00,,,0.00,TxWx,2013-02-21 15:52:00,
2013-02-21 10:56:00,75.8,66.0,30.11,ESE,118,7.4,7.4,71,0.00,,,0.00,TxWx,2013-02-21 15:56:00,
2013-02-21 10:57:00,75.7,66.0,30.11,SE,141,6.2,6.2,71,0.00,,,0.00,TxWx,2013-02-21 15:57:00,
2013-02-21 11:00:00,75.5,65.0,30.11,SE,141,7.4,7.4,71,0.00,,,0.00,TxWx,2013-02-21 16:00:00,
2013-02-21 11:02:00,75.8,66.0,30.11,ESE,118,6.2,6.8,71,0.00,,,0.00,TxWx,2013-02-21 16:02:00,
2013-02-21 11:03:00,75.8,66.0,30.11,ESE,118,5.6,6.2,71,0.00,,,0.00,TxWx,2013-02-21 16:03:00,
2013-02-21 11:05:00,75.7,66.0,30.11,ESE,118,6.2,6.2,71,0.00,,,0.00,TxWx,2013-02-21 16:05:00,
2013-02-21 11:07:00,75.5,65.0,30.11,SE,141,8.0,8.0,70,0.00,,,0.00,TxWx,2013-02-21 16:07:00,
2013-02-21 11:08:00,75.3,65.0,30.11,SE,141,7.4,8.0,70,0.00,,,0.00,TxWx,2013-02-21 16:08:00,
2013-02-21 11:11:00,75.8,66.0,30.11,SE,141,5.0,6.2,71,0.00,,,0.00,TxWx,2013-02-21 16:11:00,
2013-02-21 11:13:00,75.5,66.0,30.11,ESE,118,8.7,8.7,71,0.00,,,0.00,TxWx,2013-02-21 16:13:00,
2013-02-21 11:15:00,76.0,66.0,30.11,ESE,118,6.8,6.8,72,0.00,,,0.00,TxWx,2013-02-21 16:15:00,
2013-02-21 11:18:00,75.8,66.0,30.11,SE,141,6.8,6.8,71,0.00,,,0.00,TxWx,2013-02-21 16:18:00,
2013-02-21 11:21:00,75.7,66.0,30.11,ESE,118,7.4,7.4,71,0.00,,,0.00,TxWx,2013-02-21 16:21:00,
2013-02-21 11:22:00,75.8,66.0,30.11,SE,141,6.2,6.2,71,0.00,,,0.00,TxWx,2013-02-21 16:22:00,
2013-02-21 11:23:00,76.0,66.0,30.11,ESE,118,5.6,5.6,71,0.00,,,0.00,TxWx,2013-02-21 16:23:00,
2013-02-21 11:24:00,76.0,66.0,30.11,SE,141,5.6,5.6,71,0.00,,,0.00,TxWx,2013-02-21 16:24:00,
2013-02-21 11:28:00,75.8,66.0,30.11,SE,141,6.8,6.8,71,0.00,,,0.00,TxWx,2013-02-21 16:28:00,
2013-02-21 11:29:00,75.8,66.0,30.11,SE,141,6.8,6.8,71,0.00,,,0.00,TxWx,2013-02-21 16:29:00,
2013-02-21 11:30:00,76.0,66.0,30.11,SE,141,5.6,5.6,71,0.00,,,0.00,TxWx,2013-02-21 16:30:00,
2013-02-21 11:34:00,76.1,66.0,30.11,SE,141,4.3,5.6,71,0.00,,,0.00,TxWx,2013-02-21 16:34:00,
2013-02-21 11:35:00,75.8,66.0,30.11,ESE,118,5.6,6.8,71,0.00,,,0.00,TxWx,2013-02-21 16:35:00,
2013-02-21 11:36:00,75.9,66.0,30.11,SE,141,5.6,6.8,71,0.00,,,0.00,TxWx,2013-02-21 16:36:00,
2013-02-21 11:37:00,75.7,66.0,30.11,ESE,118,5.6,5.6,71,0.00,,,0.00,TxWx,2013-02-21 16:37:00,
2013-02-21 11:40:00,76.0,66.0,30.11,ESE,118,6.2,6.2,71,0.00,,,0.00,TxWx,2013-02-21 16:40:00,
2013-02-21 11:41:00,76.2,66.0,30.12,ESE,118,5.6,6.2,71,0.00,,,0.00,TxWx,2013-02-21 16:41:00,
2013-02-21 11:42:00,76.0,66.0,30.11,SE,141,5.6,6.2,71,0.00,,,0.00,TxWx,2013-02-21 16:42:00,
2013-02-21 11:43:00,75.8,66.0,30.11,SE,141,6.8,6.8,71,0.00,,,0.00,TxWx,2013-02-21 16:43:00,
2013-02-21 11:46:00,75.7,66.0,30.11,SE,141,6.2,6.8,71,0.00,,,0.00,TxWx,2013-02-21 16:46:00,
2013-02-21 11:47:00,75.7,66.0,30.11,SE,141,6.8,6.8,71,0.00,,,0.00,TxWx,2013-02-21 16:47:00,
2013-02-21 11:49:00,75.7,66.0,30.11,SE,141,6.8,6.8,71,0.00,,,0.00,TxWx,2013-02-21 16:49:00,
2013-02-21 11:51:00,75.8,66.0,30.11,East,96,6.2,7.4,72,0.00,,,0.00,TxWx,2013-02-21 16:51:00,
2013-02-21 11:52:00,75.9,66.0,30.11,SE,141,5.6,6.8,72,0.00,,,0.00,TxWx,2013-02-21 16:52:00,
2013-02-21 11:53:00,75.6,66.0,30.11,SE,141,5.0,5.6,71,0.00,,,0.00,TxWx,2013-02-21 16:53:00,
2013-02-21 11:55:00,75.8,66.0,30.10,SE,141,5.6,5.6,71,0.00,,,0.00,TxWx,2013-02-21 16:55:00,
2013-02-21 11:56:00,75.8,66.0,30.10,ESE,118,6.8,6.8,71,0.00,,,0.00,TxWx,2013-02-21 16:56:00,
2013-02-21 11:58:00,75.6,66.0,30.10,SE,141,6.2,6.2,71,0.00,,,0.00,TxWx,2013-02-21 16:58:00,
2013-02-21 12:00:00,75.4,65.0,30.10,SE,141,7.4,7.4,71,0.00,,,0.00,TxWx,2013-02-21 17:00:00,
2013-02-21 12:02:00,75.5,66.0,30.10,ESE,118,5.6,5.6,71,0.00,,,0.00,TxWx,2013-02-21 17:02:00,
2013-02-21 12:03:00,76.0,66.0,30.10,SE,141,6.2,6.2,72,0.00,,,0.00,TxWx,2013-02-21 17:03:00,
2013-02-21 12:04:00,75.7,66.0,30.10,SE,141,6.2,6.8,71,0.00,,,0.00,TxWx,2013-02-21 17:04:00,
2013-02-21 12:06:00,75.8,66.0,30.10,SE,141,6.2,6.8,71,0.00,,,0.00,TxWx,2013-02-21 17:06:00,
2013-02-21 12:08:00,75.8,66.0,30.10,SE,141,6.8,6.8,71,0.00,,,0.00,TxWx,2013-02-21 17:08:00,
2013-02-21 12:09:00,75.8,66.0,30.10,SE,141,5.6,5.6,71,0.00,,,0.00,TxWx,2013-02-21 17:09:00,
2013-02-21 12:11:00,75.9,66.0,30.10,SE,141,6.2,6.8,71,0.00,,,0.00,TxWx,2013-02-21 17:11:00,
2013-02-21 12:14:00,75.9,66.0,30.09,SE,141,6.8,6.8,71,0.00,,,0.00,TxWx,2013-02-21 17:14:00,
2013-02-21 12:15:00,75.8,66.0,30.09,SE,141,6.8,6.8,71,0.00,,,0.00,TxWx,2013-02-21 17:15:00,
2013-02-21 12:16:00,75.6,66.0,30.09,ESE,118,6.2,6.8,71,0.00,,,0.00,TxWx,2013-02-21 17:16:00,
2013-02-21 12:20:00,75.9,66.0,30.09,SE,141,6.2,6.8,71,0.00,,,0.00,TxWx,2013-02-21 17:20:00,
2013-02-21 12:21:00,76.0,66.0,30.09,SE,141,7.4,7.4,71,0.00,,,0.00,TxWx,2013-02-21 17:21:00,
2013-02-21 12:22:00,76.1,66.0,30.09,SE,141,6.2,6.2,71,0.00,,,0.00,TxWx,2013-02-21 17:22:00,
2013-02-21 12:23:00,75.8,66.0,30.09,SE,141,6.2,6.2,71,0.00,,,0.00,TxWx,2013-02-21 17:23:00,
2013-02-21 12:26:00,75.9,66.0,30.09,ESE,118,8.0,9.9,71,0.00,,,0.00,TxWx,2013-02-21 17:26:00,
2013-02-21 12:27:00,75.8,66.0,30.09,ESE,118,6.2,6.2,71,0.00,,,0.00,TxWx,2013-02-21 17:27:00,
2013-02-21 12:28:00,76.0,66.0,30.09,SE,141,6.2,6.8,71,0.00,,,0.00,TxWx,2013-02-21 17:28:00,
2013-02-21 12:29:00,75.8,66.0,30.09,SE,141,7.4,7.4,71,0.00,,,0.00,TxWx,2013-02-21 17:29:00,
2013-02-21 12:31:00,75.4,65.0,30.08,SE,141,7.4,7.4,71,0.00,,,0.00,TxWx,2013-02-21 17:31:00,
2013-02-21 12:33:00,75.8,66.0,30.08,ESE,118,6.8,7.4,72,0.00,,,0.00,TxWx,2013-02-21 17:33:00,
2013-02-21 12:35:00,75.8,66.0,30.08,SE,141,7.4,8.0,72,0.00,,,0.00,TxWx,2013-02-21 17:35:00,
2013-02-21 12:37:00,75.8,66.0,30.08,SE,141,7.4,7.4,72,0.00,,,0.00,TxWx,2013-02-21 17:37:00,
2013-02-21 12:40:00,75.5,66.0,30.08,ESE,118,8.7,8.7,71,0.00,,,0.00,TxWx,2013-02-21 17:40:00,
2013-02-21 12:42:00,75.6,66.0,30.08,SE,141,6.2,6.2,71,0.00,,,0.00,TxWx,2013-02-21 17:42:00,
2013-02-21 12:46:00,76.1,66.0,30.08,SE,141,6.2,6.2,71,0.00,,,0.00,TxWx,2013-02-21 17:46:00,
2013-02-21 12:47:00,76.0,66.0,30.08,SSE,163,6.2,6.2,71,0.00,,,0.00,TxWx,2013-02-21 17:47:00,
2013-02-21 12:51:00,76.1,66.0,30.08,SE,141,6.2,6.2,71,0.00,,,0.00,TxWx,2013-02-21 17:51:00,
2013-02-21 12:53:00,76.1,66.0,30.08,SE,141,5.6,6.2,71,0.00,,,0.00,TxWx,2013-02-21 17:53:00,
2013-02-21 12:54:00,75.8,65.0,30.08,SE,141,5.6,5.6,70,0.00,,,0.00,TxWx,2013-02-21 17:54:00,
2013-02-21 12:57:00,75.8,65.0,30.08,SE,141,7.4,7.4,70,0.00,,,0.00,TxWx,2013-02-21 17:57:00,
2013-02-21 12:58:00,76.0,66.0,30.08,SE,141,6.2,6.8,71,0.00,,,0.00,TxWx,2013-02-21 17:58:00,
2013-02-21 12:59:00,76.4,66.0,30.08,SE,141,6.8,7.4,71,0.00,,,0.00,TxWx,2013-02-21 17:59:00,
2013-02-21 13:00:00,76.2,66.0,30.08,ESE,118,6.8,6.8,71,0.00,,,0.00,TxWx,2013-02-21 18:00:00,
2013-02-21 13:02:00,76.3,66.0,30.08,SSE,163,5.6,5.6,71,0.00,,,0.00,TxWx,2013-02-21 18:02:00,
2013-02-21 13:03:00,76.1,65.0,30.08,SSE,163,5.6,6.8,70,0.00,,,0.00,TxWx,2013-02-21 18:03:00,
2013-02-21 13:06:00,76.2,65.0,30.08,SE,141,6.2,6.2,69,0.00,,,0.00,TxWx,2013-02-21 18:06:00,
2013-02-21 13:07:00,75.9,64.0,30.08,SE,141,7.4,7.4,68,0.00,,,0.00,TxWx,2013-02-21 18:07:00,
2013-02-21 13:08:00,76.5,64.0,30.08,East,96,4.3,4.3,68,0.00,,,0.00,TxWx,2013-02-21 18:08:00,
2013-02-21 13:09:00,76.7,65.0,30.08,SE,141,3.7,4.3,68,0.00,,,0.00,TxWx,2013-02-21 18:09:00,
2013-02-21 13:11:00,76.4,64.0,30.08,SE,141,4.3,4.3,67,0.00,,,0.00,TxWx,2013-02-21 18:11:00,
2013-02-21 13:14:00,76.6,65.0,30.07,SE,141,4.3,4.3,67,0.00,,,0.00,TxWx,2013-02-21 18:14:00,
2013-02-21 13:16:00,76.7,65.0,30.07,SE,141,5.0,5.0,67,0.00,,,0.00,TxWx,2013-02-21 18:16:00,
2013-02-21 13:17:00,76.6,65.0,30.07,SSE,163,6.2,6.2,67,0.00,,,0.00,TxWx,2013-02-21 18:17:00,
2013-02-21 13:18:00,76.9,65.0,30.07,SE,141,5.0,6.2,68,0.00,,,0.00,TxWx,2013-02-21 18:18:00,
2013-02-21 13:20:00,76.4,64.0,30.07,SE,141,6.8,7.4,68,0.00,,,0.00,TxWx,2013-02-21 18:20:00,
2013-02-21 13:22:00,76.6,66.0,30.07,SE,141,5.6,5.6,68,0.00,,,0.00,TxWx,2013-02-21 18:22:00,
2013-02-21 13:23:00,76.3,65.0,30.07,SE,141,7.4,7.4,68,0.00,,,0.00,TxWx,2013-02-21 18:23:00,
2013-02-21 13:25:00,76.3,65.0,30.07,ESE,118,6.2,8.0,69,0.00,,,0.00,TxWx,2013-02-21 18:25:00,
2013-02-21 13:26:00,76.3,65.0,30.07,ESE,118,6.2,6.2,69,0.00,,,0.00,TxWx,2013-02-21 18:26:00,
2013-02-21 13:28:00,76.1,65.0,30.07,SE,141,8.0,8.0,68,0.00,,,0.00,TxWx,2013-02-21 18:28:00,
2013-02-21 13:30:00,76.1,65.0,30.07,SE,141,6.8,6.8,68,0.00,,,0.00,TxWx,2013-02-21 18:30:00,
2013-02-21 13:31:00,76.3,65.0,30.07,SE,141,5.6,6.2,68,0.00,,,0.00,TxWx,2013-02-21 18:31:00,
2013-02-21 13:34:00,76.2,65.0,30.06,SE,141,7.4,7.4,69,0.00,,,0.00,TxWx,2013-02-21 18:34:00,
2013-02-21 13:36:00,76.1,65.0,30.06,SE,141,7.4,7.4,69,0.00,,,0.00,TxWx,2013-02-21 18:36:00,
2013-02-21 13:38:00,76.3,65.0,30.06,SE,141,6.8,7.4,70,0.00,,,0.00,TxWx,2013-02-21 18:38:00,
2013-02-21 13:41:00,76.0,65.0,30.06,SE,141,6.8,6.8,70,0.00,,,0.00,TxWx,2013-02-21 18:41:00,
2013-02-21 13:42:00,76.0,65.0,30.06,SE,141,6.2,6.8,70,0.00,,,0.00,TxWx,2013-02-21 18:42:00,
2013-02-21 13:43:00,76.1,65.0,30.06,SE,141,6.8,6.8,70,0.00,,,0.00,TxWx,2013-02-21 18:43:00,
2013-02-21 13:46:00,76.0,65.0,30.06,SSE,163,7.4,7.4,70,0.00,,,0.00,TxWx,2013-02-21 18:46:00,
2013-02-21 13:47:00,76.0,65.0,30.06,SE,141,6.8,8.0,70,0.00,,,0.00,TxWx,2013-02-21 18:47:00,
2013-02-21 13:48:00,75.8,65.0,30.06,ESE,118,8.7,8.7,70,0.00,,,0.00,TxWx,2013-02-21 18:48:00,
2013-02-21 13:49:00,76.0,65.0,30.06,SE,141,7.4,7.4,70,0.00,,,0.00,TxWx,2013-02-21 18:49:00,
2013-02-21 13:53:00,75.8,65.0,30.06,ESE,118,6.2,6.8,70,0.00,,,0.00,TxWx,2013-02-21 18:53:00,
2013-02-21 13:54:00,76.0,65.0,30.06,SE,141,7.4,7.4,70,0.00,,,0.00,TxWx,2013-02-21 18:54:00,
2013-02-21 13:55:00,75.9,65.0,30.06,SE,141,6.2,6.2,70,0.00,,,0.00,TxWx,2013-02-21 18:55:00,
2013-02-21 13:56:00,76.0,65.0,30.06,SSE,163,6.2,6.2,70,0.00,,,0.00,TxWx,2013-02-21 18:56:00,
2013-02-21 13:59:00,75.7,65.0,30.06,ESE,118,9.3,10.5,70,0.00,,,0.00,TxWx,2013-02-21 18:59:00,
2013-02-21 14:00:00,75.7,65.0,30.06,SE,141,6.8,8.0,69,0.00,,,0.00,TxWx,2013-02-21 19:00:00,
2013-02-21 14:01:00,75.9,65.0,30.06,SE,141,6.8,8.7,70,0.00,,,0.00,TxWx,2013-02-21 19:01:00,
2013-02-21 14:02:00,75.6,65.0,30.06,SSE,163,8.0,8.7,70,0.00,,,0.00,TxWx,2013-02-21 19:02:00,
2013-02-21 14:05:00,75.6,65.0,30.06,ESE,118,8.7,8.7,70,0.00,,,0.00,TxWx,2013-02-21 19:05:00,
2013-02-21 14:07:00,75.5,65.0,30.06,SE,141,8.7,9.9,70,0.00,,,0.00,TxWx,2013-02-21 19:07:00,
2013-02-21 14:08:00,75.6,65.0,30.05,SE,141,9.9,9.9,70,0.00,,,0.00,TxWx,2013-02-21 19:08:00,
2013-02-21 14:10:00,75.5,65.0,30.05,SE,141,8.7,8.7,70,0.00,,,0.00,TxWx,2013-02-21 19:10:00,
2013-02-21 14:13:00,75.8,66.0,30.06,ESE,118,7.4,7.4,71,0.00,,,0.00,TxWx,2013-02-21 19:13:00,
2013-02-21 14:15:00,75.6,66.0,30.06,SE,141,7.4,7.4,71,0.00,,,0.00,TxWx,2013-02-21 19:15:00,
2013-02-21 14:16:00,75.6,66.0,30.06,SE,141,6.8,6.8,71,0.00,,,0.00,TxWx,2013-02-21 19:16:00,
2013-02-21 14:21:00,76.4,66.0,30.05,SE,141,5.6,6.2,71,0.00,,,0.00,TxWx,2013-02-21 19:21:00,
2013-02-21 14:23:00,76.3,66.0,30.06,SE,141,6.8,6.8,71,0.00,,,0.00,TxWx,2013-02-21 19:23:00,
2013-02-21 14:27:00,76.2,66.0,30.05,SE,141,9.3,9.9,71,0.00,,,0.00,TxWx,2013-02-21 19:27:00,
2013-02-21 14:28:00,76.3,66.0,30.05,ESE,118,6.8,6.8,71,0.00,,,0.00,TxWx,2013-02-21 19:28:00,
2013-02-21 14:29:00,76.0,66.0,30.06,ESE,118,8.0,8.0,71,0.00,,,0.00,TxWx,2013-02-21 19:29:00,
2013-02-21 14:30:00,76.1,66.0,30.05,SE,141,6.2,6.8,71,0.00,,,0.00,TxWx,2013-02-21 19:30:00,
2013-02-21 14:32:00,76.0,66.0,30.05,SE,141,6.8,7.4,71,0.00,,,0.00,TxWx,2013-02-21 19:32:00,
2013-02-21 14:33:00,76.2,66.0,30.05,ESE,118,6.8,6.8,72,0.00,,,0.00,TxWx,2013-02-21 19:33:00,
2013-02-21 14:35:00,75.8,66.0,30.05,SE,141,9.9,9.9,71,0.00,,,0.00,TxWx,2013-02-21 19:35:00,
2013-02-21 14:37:00,76.3,66.0,30.05,SE,141,9.3,9.3,72,0.00,,,0.00,TxWx,2013-02-21 19:37:00,
2013-02-21 14:38:00,76.1,66.0,30.05,SE,141,8.0,8.0,72,0.00,,,0.00,TxWx,2013-02-21 19:38:00,
2013-02-21 14:39:00,76.0,66.0,30.05,SE,141,7.4,8.0,72,0.00,,,0.00,TxWx,2013-02-21 19:39:00,
2013-02-21 14:42:00,76.1,66.0,30.05,East,96,9.3,9.9,72,0.00,,,0.00,TxWx,2013-02-21 19:42:00,
2013-02-21 14:45:00,75.8,66.0,30.05,SE,141,8.7,9.3,72,0.00,,,0.00,TxWx,2013-02-21 19:45:00,
2013-02-21 14:47:00,75.8,66.0,30.05,ESE,118,8.0,8.7,72,0.00,,,0.00,TxWx,2013-02-21 19:47:00,
2013-02-21 14:48:00,75.8,66.0,30.05,SE,141,7.4,8.0,72,0.00,,,0.00,TxWx,2013-02-21 19:48:00,
2013-02-21 14:49:00,75.9,66.0,30.05,SSE,163,8.7,9.9,72,0.00,,,0.00,TxWx,2013-02-21 19:49:00,
2013-02-21 14:50:00,75.9,66.0,30.04,SE,141,7.4,7.4,71,0.00,,,0.00,TxWx,2013-02-21 19:50:00,
2013-02-21 14:53:00,75.7,66.0,30.04,SE,141,8.0,8.0,72,0.00,,,0.00,TxWx,2013-02-21 19:53:00,
2013-02-21 14:54:00,75.9,66.0,30.05,ESE,118,8.0,8.0,72,0.00,,,0.00,TxWx,2013-02-21 19:54:00,
2013-02-21 14:55:00,76.1,66.0,30.05,SE,141,8.0,8.0,72,0.00,,,0.00,TxWx,2013-02-21 19:55:00,
2013-02-21 14:56:00,76.2,66.0,30.05,ESE,118,6.2,6.2,73,0.00,,,0.00,TxWx,2013-02-21 19:56:00,
2013-02-21 14:59:00,76.8,68.0,30.05,SE,141,4.3,5.0,73,0.00,,,0.00,TxWx,2013-02-21 19:59:00,
2013-02-21 15:01:00,76.3,66.0,30.05,SE,141,7.4,8.7,72,0.00,,,0.00,TxWx,2013-02-21 20:01:00,
2013-02-21 15:02:00,76.6,67.0,30.05,ESE,118,5.6,6.8,73,0.00,,,0.00,TxWx,2013-02-21 20:02:00,
2013-02-21 15:04:00,76.7,67.0,30.04,SE,141,8.7,8.7,73,0.00,,,0.00,TxWx,2013-02-21 20:04:00,
2013-02-21 15:08:00,76.4,66.0,30.04,SE,141,4.3,5.0,72,0.00,,,0.00,TxWx,2013-02-21 20:08:00,
2013-02-21 15:10:00,76.2,66.0,30.04,SE,141,6.8,6.8,72,0.00,,,0.00,TxWx,2013-02-21 20:10:00,
2013-02-21 15:13:00,76.4,66.0,30.04,SE,141,6.8,6.8,72,0.00,,,0.00,TxWx,2013-02-21 20:13:00,
2013-02-21 15:16:00,76.4,66.0,30.04,ESE,118,6.2,7.4,72,0.00,,,0.00,TxWx,2013-02-21 20:16:00,
2013-02-21 15:19:00,76.3,66.0,30.04,SE,141,6.8,7.4,73,0.00,,,0.00,TxWx,2013-02-21 20:19:00,
2013-02-21 15:21:00,76.1,66.0,30.04,ESE,118,8.0,8.0,73,0.00,,,0.00,TxWx,2013-02-21 20:21:00,
2013-02-21 15:24:00,75.9,66.0,30.04,SE,141,6.8,6.8,73,0.00,,,0.00,TxWx,2013-02-21 20:24:00,
2013-02-21 15:25:00,76.1,67.0,30.04,SE,141,9.3,9.9,73,0.00,,,0.00,TxWx,2013-02-21 20:25:00,
2013-02-21 15:28:00,75.9,67.0,30.04,SE,141,6.8,6.8,73,0.00,,,0.00,TxWx,2013-02-21 20:28:00,
2013-02-21 15:29:00,75.9,67.0,30.04,ESE,118,6.8,8.0,73,0.00,,,0.00,TxWx,2013-02-21 20:29:00,
2013-02-21 15:33:00,75.8,67.0,30.04,SE,141,11.1,11.1,73,0.00,,,0.00,TxWx,2013-02-21 20:33:00,
2013-02-21 15:35:00,75.8,67.0,30.04,ESE,118,7.4,8.7,73,0.00,,,0.00,TxWx,2013-02-21 20:35:00,
2013-02-21 15:36:00,75.9,67.0,30.04,ESE,118,6.8,8.0,74,0.00,,,0.00,TxWx,2013-02-21 20:36:00,
2013-02-21 15:40:00,75.8,67.0,30.04,SE,141,9.3,9.3,74,0.00,,,0.00,TxWx,2013-02-21 20:40:00,
2013-02-21 15:41:00,76.1,67.0,30.03,SSE,163,8.0,9.3,74,0.00,,,0.00,TxWx,2013-02-21 20:41:00,
2013-02-21 15:45:00,75.3,66.0,30.03,SE,141,10.5,11.8,75,0.00,,,0.00,TxWx,2013-02-21 20:45:00,
2013-02-21 15:47:00,75.1,66.0,30.03,SE,141,13.6,13.6,74,0.00,,,0.00,TxWx,2013-02-21 20:47:00,
2013-02-21 15:50:00,75.3,67.0,30.03,SE,141,9.3,11.8,76,0.00,,,0.00,TxWx,2013-02-21 20:50:00,
2013-02-21 15:52:00,75.0,67.0,30.03,SE,141,10.5,10.5,75,0.00,,,0.00,TxWx,2013-02-21 20:52:00,
2013-02-21 15:53:00,74.9,67.0,30.04,SE,141,13.6,13.6,75,0.00,,,0.00,TxWx,2013-02-21 20:53:00,
2013-02-21 15:56:00,75.0,66.0,30.03,SE,141,11.1,11.1,75,0.00,,,0.00,TxWx,2013-02-21 20:56:00,
2013-02-21 15:58:00,74.8,66.0,30.03,ESE,118,10.5,10.5,74,0.00,,,0.00,TxWx,2013-02-21 20:58:00,
2013-02-21 16:03:00,75.5,67.0,30.03,ESE,118,8.0,8.0,74,0.00,,,0.00,TxWx,2013-02-21 21:03:00,
2013-02-21 16:04:00,75.5,66.0,30.03,ESE,118,10.5,10.5,74,0.00,,,0.00,TxWx,2013-02-21 21:04:00,
2013-02-21 16:05:00,75.3,66.0,30.03,ESE,118,9.3,9.3,74,0.00,,,0.00,TxWx,2013-02-21 21:05:00,
2013-02-21 16:09:00,75.3,66.0,30.04,ESE,118,9.3,9.3,75,0.00,,,0.00,TxWx,2013-02-21 21:09:00,
2013-02-21 16:10:00,75.1,66.0,30.04,ESE,118,7.4,8.0,75,0.00,,,0.00,TxWx,2013-02-21 21:10:00,
2013-02-21 16:11:00,75.2,67.0,30.03,ESE,118,8.0,10.5,75,0.00,,,0.00,TxWx,2013-02-21 21:11:00,
2013-02-21 16:14:00,75.4,66.0,30.03,SE,141,8.7,8.7,75,0.00,,,0.00,TxWx,2013-02-21 21:14:00,
2013-02-21 16:15:00,75.4,67.0,30.03,SE,141,8.0,8.7,75,0.00,,,0.00,TxWx,2013-02-21 21:15:00,
2013-02-21 16:16:00,75.4,66.0,30.04,SE,141,7.4,7.4,75,0.00,,,0.00,TxWx,2013-02-21 21:16:00,
2013-02-21 16:20:00,75.4,66.0,30.03,SE,141,9.3,9.9,74,0.00,,,0.00,TxWx,2013-02-21 21:20:00,
2013-02-21 16:22:00,75.4,66.0,30.04,SE,141,9.3,9.3,74,0.00,,,0.00,TxWx,2013-02-21 21:22:00,
2013-02-21 16:26:00,75.2,66.0,30.03,SE,141,10.5,10.5,74,0.00,,,0.00,TxWx,2013-02-21 21:26:00,
2013-02-21 16:28:00,75.3,66.0,30.04,SE,141,7.4,7.4,74,0.00,,,0.00,TxWx,2013-02-21 21:28:00,
2013-02-21 16:32:00,75.3,66.0,30.04,ESE,118,8.0,9.3,74,0.00,,,0.00,TxWx,2013-02-21 21:32:00,
2013-02-21 16:33:00,75.1,66.0,30.04,East,96,10.5,10.5,74,0.00,,,0.00,TxWx,2013-02-21 21:33:00,
2013-02-21 16:34:00,75.2,66.0,30.04,SE,141,11.1,11.1,74,0.00,,,0.00,TxWx,2013-02-21 21:34:00,
2013-02-21 16:37:00,75.4,66.0,30.03,SE,141,9.9,11.1,75,0.00,,,0.00,TxWx,2013-02-21 21:37:00,
2013-02-21 16:39:00,75.3,66.0,30.04,SE,141,8.0,8.7,75,0.00,,,0.00,TxWx,2013-02-21 21:39:00,
2013-02-21 16:41:00,75.2,66.0,30.04,SE,141,8.7,9.3,74,0.00,,,0.00,TxWx,2013-02-21 21:41:00,
2013-02-21 16:43:00,75.5,66.0,30.04,ESE,118,8.0,8.0,75,0.00,,,0.00,TxWx,2013-02-21 21:43:00,
2013-02-21 16:44:00,75.1,66.0,30.04,SE,141,11.8,12.4,74,0.00,,,0.00,TxWx,2013-02-21 21:44:00,
2013-02-21 16:46:00,75.1,66.0,30.04,ESE,118,10.5,11.1,74,0.00,,,0.00,TxWx,2013-02-21 21:46:00,
2013-02-21 16:48:00,75.2,66.0,30.04,ESE,118,8.7,8.7,75,0.00,,,0.00,TxWx,2013-02-21 21:48:00,
2013-02-21 16:49:00,75.3,66.0,30.04,SE,141,11.1,11.1,75,0.00,,,0.00,TxWx,2013-02-21 21:49:00,
2013-02-21 16:51:00,75.4,67.0,30.04,ESE,118,6.8,6.8,75,0.00,,,0.00,TxWx,2013-02-21 21:51:00,
2013-02-21 16:53:00,75.0,67.0,30.04,SE,141,7.4,8.0,75,0.00,,,0.00,TxWx,2013-02-21 21:53:00,
2013-02-21 16:55:00,75.3,67.0,30.04,ESE,118,10.5,11.8,76,0.00,,,0.00,TxWx,2013-02-21 21:55:00,
2013-02-21 16:57:00,75.1,66.0,30.04,SE,141,10.5,10.5,75,0.00,,,0.00,TxWx,2013-02-21 21:57:00,
2013-02-21 16:59:00,75.2,66.0,30.04,SE,141,11.1,11.8,75,0.00,,,0.00,TxWx,2013-02-21 21:59:00,
2013-02-21 17:00:00,75.3,67.0,30.04,SSE,163,9.3,9.3,75,0.00,,,0.00,TxWx,2013-02-21 22:00:00,
2013-02-21 17:04:00,75.1,66.0,30.04,SE,141,7.4,7.4,74,0.00,,,0.00,TxWx,2013-02-21 22:04:00,
2013-02-21 17:05:00,75.1,66.0,30.04,SE,141,10.5,10.5,75,0.00,,,0.00,TxWx,2013-02-21 22:05:00,
2013-02-21 17:06:00,75.4,67.0,30.04,SE,141,5.6,6.2,75,0.00,,,0.00,TxWx,2013-02-21 22:06:00,
2013-02-21 17:10:00,75.0,66.0,30.04,ESE,118,10.5,10.5,74,0.00,,,0.00,TxWx,2013-02-21 22:10:00,
2013-02-21 17:11:00,75.1,66.0,30.04,ESE,118,9.9,11.1,75,0.00,,,0.00,TxWx,2013-02-21 22:11:00,
2013-02-21 17:16:00,75.0,66.0,30.04,SE,141,8.7,8.7,74,0.00,,,0.00,TxWx,2013-02-21 22:16:00,
2013-02-21 17:17:00,74.9,66.0,30.04,SE,141,10.5,10.5,74,0.00,,,0.00,TxWx,2013-02-21 22:17:00,
2013-02-21 17:21:00,74.9,66.0,30.04,SE,141,8.0,8.7,74,0.00,,,0.00,TxWx,2013-02-21 22:21:00,
2013-02-21 17:22:00,75.1,66.0,30.04,SSE,163,8.0,8.0,74,0.00,,,0.00,TxWx,2013-02-21 22:22:00,
2013-02-21 17:24:00,74.9,66.0,30.04,ESE,118,9.9,11.1,75,0.00,,,0.00,TxWx,2013-02-21 22:24:00,
2013-02-21 17:28:00,74.8,66.0,30.03,SE,141,10.5,10.5,74,0.00,,,0.00,TxWx,2013-02-21 22:28:00,
2013-02-21 17:29:00,75.0,66.0,30.04,SE,141,8.7,8.7,74,0.00,,,0.00,TxWx,2013-02-21 22:29:00,
2013-02-21 17:33:00,75.1,66.0,30.03,SE,141,8.7,8.7,75,0.00,,,0.00,TxWx,2013-02-21 22:33:00,
2013-02-21 17:34:00,75.1,66.0,30.04,SE,141,8.0,9.3,75,0.00,,,0.00,TxWx,2013-02-21 22:34:00,
2013-02-21 17:35:00,75.0,66.0,30.04,SSE,163,9.9,11.1,75,0.00,,,0.00,TxWx,2013-02-21 22:35:00,
2013-02-21 17:39:00,75.1,67.0,30.04,SE,141,8.0,8.0,75,0.00,,,0.00,TxWx,2013-02-21 22:39:00,
2013-02-21 17:40:00,75.2,67.0,30.04,SE,141,8.0,8.7,75,0.00,,,0.00,TxWx,2013-02-21 22:40:00,
2013-02-21 17:41:00,74.8,67.0,30.03,SE,141,11.1,11.8,75,0.00,,,0.00,TxWx,2013-02-21 22:41:00,
2013-02-21 17:45:00,74.8,66.0,30.03,SE,141,8.0,9.9,74,0.00,,,0.00,TxWx,2013-02-21 22:45:00,
2013-02-21 17:46:00,74.9,66.0,30.03,SE,141,11.1,11.1,74,0.00,,,0.00,TxWx,2013-02-21 22:46:00,
2013-02-21 17:48:00,74.9,67.0,30.04,SE,141,9.3,11.1,75,0.00,,,0.00,TxWx,2013-02-21 22:48:00,
2013-02-21 17:50:00,74.7,67.0,30.03,SE,141,9.3,10.5,75,0.00,,,0.00,TxWx,2013-02-21 22:50:00,
2013-02-21 17:53:00,74.6,66.0,30.04,SE,141,9.3,10.5,75,0.00,,,0.00,TxWx,2013-02-21 22:53:00,
2013-02-21 17:54:00,74.7,66.0,30.03,SE,141,8.0,8.0,75,0.00,,,0.00,TxWx,2013-02-21 22:54:00,
2013-02-21 17:56:00,74.6,66.0,30.03,ESE,118,9.3,9.9,74,0.00,,,0.00,TxWx,2013-02-21 22:56:00,
2013-02-21 18:00:00,74.6,66.0,30.03,SE,141,11.1,11.1,74,0.00,,,0.00,TxWx,2013-02-21 23:00:00,
2013-02-21 18:02:00,74.8,66.0,30.03,SE,141,10.5,10.5,74,0.00,,,0.00,TxWx,2013-02-21 23:02:00,
2013-02-21 18:07:00,74.7,66.0,30.04,ESE,118,9.3,9.3,74,0.00,,,0.00,TxWx,2013-02-21 23:07:00,
2013-02-21 18:08:00,74.6,66.0,30.04,SE,141,9.9,10.5,74,0.00,,,0.00,TxWx,2013-02-21 23:08:00,
2013-02-21 18:09:00,74.7,66.0,30.03,SE,141,9.9,9.9,74,0.00,,,0.00,TxWx,2013-02-21 23:09:00,
2013-02-21 18:13:00,74.8,67.0,30.04,SE,141,8.7,9.3,75,0.00,,,0.00,TxWx,2013-02-21 23:13:00,
2013-02-21 18:14:00,74.6,66.0,30.04,SE,141,9.3,9.3,75,0.00,,,0.00,TxWx,2013-02-21 23:14:00,
2013-02-21 18:18:00,74.8,67.0,30.04,ESE,118,8.7,9.3,76,0.00,,,0.00,TxWx,2013-02-21 23:18:00,
2013-02-21 18:19:00,74.6,67.0,30.04,ESE,118,9.9,10.5,75,0.00,,,0.00,TxWx,2013-02-21 23:19:00,
2013-02-21 18:20:00,74.6,67.0,30.04,SE,141,8.0,9.9,75,0.00,,,0.00,TxWx,2013-02-21 23:20:00,
2013-02-21 18:24:00,74.6,67.0,30.04,ESE,118,11.1,11.8,75,0.00,,,0.00,TxWx,2013-02-21 23:24:00,
2013-02-21 18:25:00,74.6,67.0,30.04,SE,141,8.7,9.9,75,0.00,,,0.00,TxWx,2013-02-21 23:25:00,
2013-02-21 18:26:00,74.7,67.0,30.04,SE,141,9.9,10.5,76,0.00,,,0.00,TxWx,2013-02-21 23:26:00,
2013-02-21 18:30:00,74.7,67.0,30.04,ESE,118,8.7,10.5,75,0.00,,,0.00,TxWx,2013-02-21 23:30:00,
2013-02-21 18:32:00,74.6,67.0,30.04,ESE,118,10.5,10.5,75,0.00,,,0.00,TxWx,2013-02-21 23:32:00,
2013-02-21 18:35:00,74.8,67.0,30.04,ESE,118,8.0,11.1,77,0.00,,,0.00,TxWx,2013-02-21 23:35:00,
2013-02-21 18:36:00,74.5,66.0,30.04,SE,141,13.6,13.6,76,0.00,,,0.00,TxWx,2013-02-21 23:36:00,
2013-02-21 18:38:00,74.7,67.0,30.04,SE,141,8.7,9.3,76,0.00,,,0.00,TxWx,2013-02-21 23:38:00,
2013-02-21 18:41:00,74.5,66.0,30.03,SE,141,9.3,12.4,77,0.00,,,0.00,TxWx,2013-02-21 23:41:00,
2013-02-21 18:42:00,74.6,67.0,30.03,SE,141,9.3,10.5,77,0.00,,,0.00,TxWx,2013-02-21 23:42:00,
2013-02-21 18:44:00,74.7,67.0,30.03,SE,141,9.9,9.9,77,0.00,,,0.00,TxWx,2013-02-21 23:44:00,
2013-02-21 18:47:00,74.5,66.0,30.04,ESE,118,9.9,11.8,77,0.00,,,0.00,TxWx,2013-02-21 23:47:00,
2013-02-21 18:50:00,74.4,66.0,30.03,SE,141,11.1,11.1,77,0.00,,,0.00,TxWx,2013-02-21 23:50:00,
2013-02-21 18:53:00,74.7,67.0,30.03,SE,141,10.5,11.1,77,0.00,,,0.00,TxWx,2013-02-21 23:53:00,
2013-02-21 18:57:00,74.5,66.0,30.03,SE,141,9.3,9.9,78,0.00,,,0.00,TxWx,2013-02-21 23:57:00,
2013-02-21 18:59:00,74.8,68.0,30.03,SE,141,9.9,11.1,78,0.00,,,0.00,TxWx,2013-02-21 23:59:00,
2013-02-21 19:02:00,74.7,68.0,30.04,ESE,118,8.7,8.7,78,0.00,,,0.00,TxWx,2013-02-22 00:02:00,
2013-02-21 19:04:00,74.4,66.0,30.04,SE,141,11.1,11.1,78,0.00,,,0.00,TxWx,2013-02-22 00:04:00,
2013-02-21 19:05:00,74.5,66.0,30.04,SE,141,9.3,11.8,78,0.00,,,0.00,TxWx,2013-02-22 00:05:00,
2013-02-21 19:09:00,74.5,67.0,30.04,SE,141,10.5,11.1,78,0.00,,,0.00,TxWx,2013-02-22 00:09:00,
2013-02-21 19:10:00,74.6,67.0,30.04,SE,141,9.9,9.9,78,0.00,,,0.00,TxWx,2013-02-22 00:10:00,
2013-02-21 19:12:00,74.5,66.0,30.04,ESE,118,10.5,10.5,78,0.00,,,0.00,TxWx,2013-02-22 00:12:00,
2013-02-21 19:14:00,74.6,68.0,30.04,SE,141,11.8,12.4,78,0.00,,,0.00,TxWx,2013-02-22 00:14:00,
2013-02-21 19:16:00,74.6,68.0,30.04,SE,141,11.1,11.1,78,0.00,,,0.00,TxWx,2013-02-22 00:16:00,
2013-02-21 19:18:00,74.5,68.0,30.04,SE,141,10.5,12.4,78,0.00,,,0.00,TxWx,2013-02-22 00:18:00,
2013-02-21 19:21:00,74.5,67.0,30.04,ESE,118,12.4,12.4,78,0.00,,,0.00,TxWx,2013-02-22 00:21:00,
2013-02-21 19:23:00,74.6,68.0,30.04,ESE,118,9.3,10.5,79,0.00,,,0.00,TxWx,2013-02-22 00:23:00,
2013-02-21 19:26:00,74.5,67.0,30.04,SE,141,11.8,11.8,78,0.00,,,0.00,TxWx,2013-02-22 00:26:00,
2013-02-21 19:29:00,74.6,68.0,30.04,SE,141,10.5,10.5,79,0.00,,,0.00,TxWx,2013-02-22 00:29:00,
2013-02-21 19:31:00,74.5,68.0,30.05,SE,141,9.9,10.5,79,0.00,,,0.00,TxWx,2013-02-22 00:31:00,
2013-02-21 19:33:00,74.8,68.0,30.05,SE,141,8.0,9.3,79,0.00,,,0.00,TxWx,2013-02-22 00:33:00,
2013-02-21 19:34:00,74.9,68.0,30.05,ESE,118,8.7,9.9,79,0.00,,,0.00,TxWx,2013-02-22 00:34:00,
2013-02-21 19:36:00,74.7,68.0,30.05,ESE,118,11.1,11.1,79,0.00,,,0.00,TxWx,2013-02-22 00:36:00,
2013-02-21 19:40:00,74.4,67.0,30.05,SE,141,11.8,11.8,79,0.00,,,0.00,TxWx,2013-02-22 00:40:00,
2013-02-21 19:42:00,74.7,68.0,30.05,SE,141,9.9,9.9,79,0.00,,,0.00,TxWx,2013-02-22 00:42:00,
2013-02-21 19:45:00,74.6,68.0,30.05,SE,141,11.8,11.8,79,0.00,,,0.00,TxWx,2013-02-22 00:45:00,
2013-02-21 19:46:00,74.7,68.0,30.05,SE,141,9.3,9.3,79,0.00,,,0.00,TxWx,2013-02-22 00:46:00,
2013-02-21 19:48:00,74.7,68.0,30.05,SE,141,9.3,12.4,79,0.00,,,0.00,TxWx,2013-02-22 00:48:00,
2013-02-21 19:49:00,74.5,68.0,30.05,SE,141,9.9,13.6,79,0.00,,,0.00,TxWx,2013-02-22 00:49:00,
2013-02-21 19:50:00,74.7,68.0,30.05,SE,141,9.3,10.5,79,0.00,,,0.00,TxWx,2013-02-22 00:50:00,
2013-02-21 19:51:00,74.6,68.0,30.05,SE,141,11.8,12.4,79,0.00,,,0.00,TxWx,2013-02-22 00:51:00,
2013-02-21 19:53:00,74.7,68.0,30.05,SE,141,9.9,9.9,79,0.00,,,0.00,TxWx,2013-02-22 00:53:00,
2013-02-21 19:55:00,74.7,68.0,30.05,SE,141,9.9,9.9,79,0.00,,,0.00,TxWx,2013-02-22 00:55:00,
2013-02-21 19:56:00,74.6,68.0,30.05,SE,141,9.9,9.9,79,0.00,,,0.00,TxWx,2013-02-22 00:56:00,
2013-02-21 20:00:00,74.7,68.0,30.05,SE,141,9.3,9.9,80,0.00,,,0.00,TxWx,2013-02-22 01:00:00,
2013-02-21 20:01:00,74.5,68.0,30.05,SE,141,9.3,10.5,79,0.00,,,0.00,TxWx,2013-02-22 01:01:00,
2013-02-21 20:02:00,74.5,68.0,30.05,SE,141,9.9,11.1,79,0.00,,,0.00,TxWx,2013-02-22 01:02:00,
2013-02-21 20:03:00,74.6,68.0,30.05,SE,141,10.5,10.5,80,0.00,,,0.00,TxWx,2013-02-22 01:03:00,
2013-02-21 20:05:00,74.5,67.0,30.05,SE,141,9.9,11.1,79,0.00,,,0.00,TxWx,2013-02-22 01:05:00,
2013-02-21 20:07:00,74.7,68.0,30.05,SE,141,8.0,8.7,80,0.00,,,0.00,TxWx,2013-02-22 01:07:00,
2013-02-21 20:08:00,74.5,68.0,30.05,SE,141,12.4,12.4,80,0.00,,,0.00,TxWx,2013-02-22 01:08:00,
2013-02-21 20:09:00,74.6,68.0,30.05,SE,141,11.1,11.1,80,0.00,,,0.00,TxWx,2013-02-22 01:09:00,
2013-02-21 20:11:00,74.5,68.0,30.05,SE,141,8.7,10.5,80,0.00,,,0.00,TxWx,2013-02-22 01:11:00,
2013-02-21 20:12:00,74.6,68.0,30.05,SE,141,11.1,11.1,80,0.00,,,0.00,TxWx,2013-02-22 01:12:00,
2013-02-21 20:14:00,74.5,68.0,30.05,SE,141,12.4,12.4,80,0.00,,,0.00,TxWx,2013-02-22 01:14:00,
2013-02-21 20:18:00,74.7,68.0,30.06,SE,141,8.0,8.0,80,0.00,,,0.00,TxWx,2013-02-22 01:18:00,
2013-02-21 20:19:00,74.6,68.0,30.06,SSE,163,8.7,8.7,80,0.00,,,0.00,TxWx,2013-02-22 01:19:00,
2013-02-21 20:21:00,74.5,68.0,30.06,SE,141,9.3,9.9,79,0.00,,,0.00,TxWx,2013-02-22 01:21:00,
2013-02-21 20:23:00,74.8,68.0,30.06,SE,141,10.5,10.5,80,0.00,,,0.00,TxWx,2013-02-22 01:23:00,
2013-02-21 20:25:00,75.0,68.0,30.06,ESE,118,6.8,8.0,80,0.00,,,0.00,TxWx,2013-02-22 01:25:00,
2013-02-21 20:28:00,74.7,68.0,30.06,SE,141,10.5,11.1,79,0.00,,,0.00,TxWx,2013-02-22 01:28:00,
2013-02-21 20:29:00,75.0,68.0,30.06,SE,141,6.8,7.4,79,0.00,,,0.00,TxWx,2013-02-22 01:29:00,
2013-02-21 20:32:00,74.7,68.0,30.06,ESE,118,12.4,12.4,79,0.00,,,0.00,TxWx,2013-02-22 01:32:00,
2013-02-21 20:34:00,74.9,68.0,30.06,ESE,118,9.9,9.9,79,0.00,,,0.00,TxWx,2013-02-22 01:34:00,
2013-02-21 20:35:00,74.9,68.0,30.06,SE,141,9.9,11.1,79,0.00,,,0.00,TxWx,2013-02-22 01:35:00,
2013-02-21 20:39:00,74.7,67.0,30.05,SE,141,9.9,11.8,78,0.00,,,0.00,TxWx,2013-02-22 01:39:00,
2013-02-21 20:40:00,74.9,68.0,30.05,SE,141,12.4,12.4,78,0.00,,,0.00,TxWx,2013-02-22 01:40:00,
2013-02-21 20:41:00,74.7,67.0,30.05,SE,141,12.4,12.4,78,0.00,,,0.00,TxWx,2013-02-22 01:41:00,
2013-02-21 20:43:00,74.8,67.0,30.05,SE,141,8.7,9.3,77,0.00,,,0.00,TxWx,2013-02-22 01:43:00,
2013-02-21 20:44:00,75.0,67.0,30.05,SE,141,11.8,11.8,77,0.00,,,0.00,TxWx,2013-02-22 01:44:00,
2013-02-21 20:47:00,74.8,67.0,30.05,SE,141,14.2,14.2,77,0.00,,,0.00,TxWx,2013-02-22 01:47:00,
2013-02-21 20:49:00,74.7,67.0,30.06,SE,141,11.1,11.8,77,0.00,,,0.00,TxWx,2013-02-22 01:49:00,
2013-02-21 20:50:00,74.7,67.0,30.05,ESE,118,9.3,11.8,77,0.00,,,0.00,TxWx,2013-02-22 01:50:00,
2013-02-21 20:52:00,74.6,67.0,30.06,SE,141,12.4,13.6,77,0.00,,,0.00,TxWx,2013-02-22 01:52:00,
2013-02-21 20:54:00,74.8,67.0,30.06,SE,141,10.5,11.1,76,0.00,,,0.00,TxWx,2013-02-22 01:54:00,
2013-02-21 20:56:00,74.9,67.0,30.06,SE,141,9.9,11.1,77,0.00,,,0.00,TxWx,2013-02-22 01:56:00,
2013-02-21 20:58:00,74.8,67.0,30.06,SE,141,10.5,11.8,77,0.00,,,0.00,TxWx,2013-02-22 01:58:00,
2013-02-21 21:01:00,75.0,67.0,30.06,SE,141,9.9,10.5,77,0.00,,,0.00,TxWx,2013-02-22 02:01:00,
2013-02-21 21:02:00,74.9,67.0,30.06,SE,141,13.0,13.0,77,0.00,,,0.00,TxWx,2013-02-22 02:02:00,
2013-02-21 21:03:00,74.9,67.0,30.06,SE,141,9.9,10.5,78,0.00,,,0.00,TxWx,2013-02-22 02:03:00,
2013-02-21 21:07:00,74.7,67.0,30.06,ESE,118,11.1,11.8,77,0.00,,,0.00,TxWx,2013-02-22 02:07:00,
2013-02-21 21:08:00,74.6,67.0,30.06,SE,141,9.9,11.1,77,0.00,,,0.00,TxWx,2013-02-22 02:08:00,
2013-02-21 21:10:00,74.8,67.0,30.06,SE,141,10.5,10.5,77,0.00,,,0.00,TxWx,2013-02-22 02:10:00,
2013-02-21 21:13:00,74.6,67.0,30.06,SE,141,11.1,13.0,76,0.00,,,0.00,TxWx,2013-02-22 02:13:00,
2013-02-21 21:14:00,75.1,67.0,30.06,SE,141,12.4,12.4,77,0.00,,,0.00,TxWx,2013-02-22 02:14:00,
2013-02-21 21:15:00,74.7,67.0,30.06,SE,141,11.8,11.8,76,0.00,,,0.00,TxWx,2013-02-22 02:15:00,
2013-02-21 21:18:00,74.8,67.0,30.06,SE,141,11.8,13.0,77,0.00,,,0.00,TxWx,2013-02-22 02:18:00,
2013-02-21 21:20:00,74.9,67.0,30.06,SE,141,11.1,11.1,77,0.00,,,0.00,TxWx,2013-02-22 02:20:00,
2013-02-21 21:21:00,74.7,67.0,30.06,SE,141,13.0,13.0,76,0.00,,,0.00,TxWx,2013-02-22 02:21:00,
2013-02-21 21:24:00,74.7,67.0,30.06,ESE,118,11.1,13.6,76,0.00,,,0.00,TxWx,2013-02-22 02:24:00,
2013-02-21 21:25:00,74.9,67.0,30.06,SE,141,11.8,11.8,77,0.00,,,0.00,TxWx,2013-02-22 02:25:00,
2013-02-21 21:27:00,74.9,67.0,30.06,SE,141,10.5,11.1,76,0.00,,,0.00,TxWx,2013-02-22 02:27:00,
2013-02-21 21:30:00,74.8,67.0,30.06,SE,141,13.0,13.6,77,0.00,,,0.00,TxWx,2013-02-22 02:30:00,
2013-02-21 21:31:00,74.8,67.0,30.06,SE,141,12.4,13.0,76,0.00,,,0.00,TxWx,2013-02-22 02:31:00,
2013-02-21 21:33:00,75.0,67.0,30.07,ESE,118,9.3,9.3,77,0.00,,,0.00,TxWx,2013-02-22 02:33:00,
2013-02-21 21:36:00,74.9,67.0,30.07,ESE,118,10.5,11.1,77,0.00,,,0.00,TxWx,2013-02-22 02:36:00,
2013-02-21 21:38:00,74.8,67.0,30.07,East,96,10.5,11.8,77,0.00,,,0.00,TxWx,2013-02-22 02:38:00,
2013-02-21 21:40:00,75.0,67.0,30.07,ESE,118,9.9,9.9,77,0.00,,,0.00,TxWx,2013-02-22 02:40:00,
2013-02-21 21:43:00,74.6,67.0,30.07,SE,141,12.4,12.4,76,0.00,,,0.00,TxWx,2013-02-22 02:43:00,
2013-02-21 21:44:00,74.7,67.0,30.07,SE,141,11.1,11.1,76,0.00,,,0.00,TxWx,2013-02-22 02:44:00,
2013-02-21 21:46:00,75.0,67.0,30.07,SE,141,11.8,11.8,77,0.00,,,0.00,TxWx,2013-02-22 02:46:00,
2013-02-21 21:48:00,74.7,67.0,30.07,ESE,118,11.8,11.8,76,0.00,,,0.00,TxWx,2013-02-22 02:48:00,
2013-02-21 21:50:00,74.8,67.0,30.07,SE,141,10.5,11.8,76,0.00,,,0.00,TxWx,2013-02-22 02:50:00,
2013-02-21 21:51:00,74.8,67.0,30.07,ESE,118,13.0,13.0,77,0.00,,,0.00,TxWx,2013-02-22 02:51:00,
2013-02-21 21:53:00,74.7,67.0,30.07,ESE,118,9.3,10.5,77,0.00,,,0.00,TxWx,2013-02-22 02:53:00,
2013-02-21 21:55:00,74.5,67.0,30.07,SE,141,9.9,11.8,77,0.00,,,0.00,TxWx,2013-02-22 02:55:00,
2013-02-21 21:57:00,74.6,67.0,30.07,SE,141,11.1,11.8,77,0.00,,,0.00,TxWx,2013-02-22 02:57:00,
2013-02-21 21:58:00,74.5,66.0,30.07,SE,141,11.8,11.8,77,0.00,,,0.00,TxWx,2013-02-22 02:58:00,
2013-02-21 22:02:00,74.6,67.0,30.07,ESE,118,9.9,9.9,77,0.00,,,0.00,TxWx,2013-02-22 03:02:00,
2013-02-21 22:03:00,74.8,67.0,30.07,SE,141,13.0,13.0,77,0.00,,,0.00,TxWx,2013-02-22 03:03:00,
2013-02-21 22:04:00,74.5,67.0,30.07,SE,141,10.5,10.5,76,0.00,,,0.00,TxWx,2013-02-22 03:04:00,
2013-02-21 22:07:00,74.7,67.0,30.07,SE,141,11.1,11.1,75,0.00,,,0.00,TxWx,2013-02-22 03:07:00,
2013-02-21 22:10:00,74.9,67.0,30.07,SE,141,9.3,9.9,76,0.00,,,0.00,TxWx,2013-02-22 03:10:00,
2013-02-21 22:11:00,74.9,67.0,30.07,ESE,118,10.5,10.5,76,0.00,,,0.00,TxWx,2013-02-22 03:11:00,
2013-02-21 22:13:00,74.6,67.0,30.07,SE,141,13.0,13.0,76,0.00,,,0.00,TxWx,2013-02-22 03:13:00,
2013-02-21 22:15:00,74.6,67.0,30.07,ESE,118,11.1,11.8,75,0.00,,,0.00,TxWx,2013-02-22 03:15:00,
2013-02-21 22:16:00,74.7,67.0,30.07,SE,141,9.3,11.8,75,0.00,,,0.00,TxWx,2013-02-22 03:16:00,
2013-02-21 22:19:00,74.6,67.0,30.07,ESE,118,9.9,11.1,75,0.00,,,0.00,TxWx,2013-02-22 03:19:00,
2013-02-21 22:21:00,75.1,67.0,30.07,ESE,118,9.3,9.3,76,0.00,,,0.00,TxWx,2013-02-22 03:21:00,
2013-02-21 22:23:00,74.6,67.0,30.07,SE,141,9.3,9.3,76,0.00,,,0.00,TxWx,2013-02-22 03:23:00,
2013-02-21 22:26:00,74.4,66.0,30.07,ESE,118,12.4,12.4,75,0.00,,,0.00,TxWx,2013-02-22 03:26:00,
2013-02-21 22:27:00,74.6,67.0,30.07,East,96,10.5,10.5,75,0.00,,,0.00,TxWx,2013-02-22 03:27:00,
2013-02-21 22:28:00,74.4,66.0,30.07,ESE,118,11.8,11.8,76,0.00,,,0.00,TxWx,2013-02-22 03:28:00,
2013-02-21 22:33:00,74.4,66.0,30.07,ESE,118,11.1,11.8,76,0.00,,,0.00,TxWx,2013-02-22 03:33:00,
2013-02-21 22:36:00,74.5,67.0,30.07,SE,141,10.5,11.8,76,0.00,,,0.00,TxWx,2013-02-22 03:36:00,
2013-02-21 22:38:00,74.5,67.0,30.07,SE,141,10.5,12.4,76,0.00,,,0.00,TxWx,2013-02-22 03:38:00,
2013-02-21 22:39:00,74.5,67.0,30.07,ESE,118,10.5,10.5,76,0.00,,,0.00,TxWx,2013-02-22 03:39:00,
2013-02-21 22:43:00,74.5,67.0,30.07,SE,141,9.3,9.3,75,0.00,,,0.00,TxWx,2013-02-22 03:43:00,
2013-02-21 22:45:00,74.8,67.0,30.07,SE,141,8.7,8.7,76,0.00,,,0.00,TxWx,2013-02-22 03:45:00,
2013-02-21 22:48:00,74.6,67.0,30.07,SE,141,9.9,9.9,75,0.00,,,0.00,TxWx,2013-02-22 03:48:00,
2013-02-21 22:50:00,74.7,67.0,30.07,ESE,118,9.3,9.3,75,0.00,,,0.00,TxWx,2013-02-22 03:50:00,
2013-02-21 22:54:00,74.6,67.0,30.06,SE,141,11.1,11.8,75,0.00,,,0.00,TxWx,2013-02-22 03:54:00,
2013-02-21 22:56:00,74.7,67.0,30.07,East,96,8.7,9.9,76,0.00,,,0.00,TxWx,2013-02-22 03:56:00,
2013-02-21 23:00:00,74.6,67.0,30.06,ESE,118,10.5,10.5,76,0.00,,,0.00,TxWx,2013-02-22 04:00:00,
2013-02-21 23:02:00,74.5,66.0,30.06,SE,141,10.5,11.1,75,0.00,,,0.00,TxWx,2013-02-22 04:02:00,
2013-02-21 23:05:00,74.7,67.0,30.06,ESE,118,8.7,9.3,75,0.00,,,0.00,TxWx,2013-02-22 04:05:00,
2013-02-21 23:07:00,74.4,66.0,30.06,ESE,118,10.5,12.4,75,0.00,,,0.00,TxWx,2013-02-22 04:07:00,
2013-02-21 23:08:00,74.3,65.0,30.06,SE,141,9.3,10.5,74,0.00,,,0.00,TxWx,2013-02-22 04:08:00,
2013-02-21 23:11:00,74.5,66.0,30.06,SE,141,10.5,11.1,75,0.00,,,0.00,TxWx,2013-02-22 04:11:00,
2013-02-21 23:12:00,74.5,66.0,30.06,SE,141,11.8,14.2,75,0.00,,,0.00,TxWx,2013-02-22 04:12:00,
2013-02-21 23:14:00,74.6,66.0,30.06,SE,141,11.1,11.1,75,0.00,,,0.00,TxWx,2013-02-22 04:14:00,
2013-02-21 23:16:00,74.4,66.0,30.06,ESE,118,10.5,10.5,75,0.00,,,0.00,TxWx,2013-02-22 04:16:00,
2013-02-21 23:17:00,74.6,67.0,30.06,ESE,118,11.1,11.1,76,0.00,,,0.00,TxWx,2013-02-22 04:17:00,
2013-02-21 23:19:00,74.7,67.0,30.06,SE,141,8.7,9.9,77,0.00,,,0.00,TxWx,2013-02-22 04:19:00,
2013-02-21 23:22:00,74.5,67.0,30.06,SE,141,9.9,9.9,76,0.00,,,0.00,TxWx,2013-02-22 04:22:00,
2013-02-21 23:24:00,74.4,66.0,30.06,SE,141,9.9,10.5,76,0.00,,,0.00,TxWx,2013-02-22 04:24:00,
2013-02-21 23:27:00,74.6,67.0,30.06,ESE,118,9.3,11.8,77,0.00,,,0.00,TxWx,2013-02-22 04:27:00,
2013-02-21 23:29:00,74.2,66.0,30.06,ESE,118,10.5,11.1,77,0.00,,,0.00,TxWx,2013-02-22 04:29:00,
2013-02-21 23:32:00,74.4,66.0,30.07,ESE,118,9.9,9.9,77,0.00,,,0.00,TxWx,2013-02-22 04:32:00,
2013-02-21 23:33:00,74.3,66.0,30.07,SE,141,11.8,13.0,77,0.00,,,0.00,TxWx,2013-02-22 04:33:00,
2013-02-21 23:35:00,74.2,66.0,30.07,ESE,118,9.3,10.5,75,0.00,,,0.00,TxWx,2013-02-22 04:35:00,
2013-02-21 23:37:00,74.4,66.0,30.07,ESE,118,9.9,11.1,76,0.00,,,0.00,TxWx,2013-02-22 04:37:00,
2013-02-21 23:38:00,74.6,67.0,30.07,SE,141,9.3,11.1,76,0.00,,,0.00,TxWx,2013-02-22 04:38:00,
2013-02-21 23:40:00,74.3,66.0,30.07,ESE,118,9.3,10.5,76,0.00,,,0.00,TxWx,2013-02-22 04:40:00,
2013-02-21 23:43:00,74.4,66.0,30.06,SE,141,11.1,11.8,76,0.00,,,0.00,TxWx,2013-02-22 04:43:00,
2013-02-21 23:44:00,74.4,66.0,30.06,ESE,118,12.4,12.4,76,0.00,,,0.00,TxWx,2013-02-22 04:44:00,
2013-02-21 23:45:00,74.5,67.0,30.06,SE,141,8.7,11.1,76,0.00,,,0.00,TxWx,2013-02-22 04:45:00,
2013-02-21 23:48:00,74.3,66.0,30.06,ESE,118,11.1,12.4,76,0.00,,,0.00,TxWx,2013-02-22 04:48:00,
2013-02-21 23:49:00,74.4,66.0,30.06,SE,141,11.1,11.1,76,0.00,,,0.00,TxWx,2013-02-22 04:49:00,
2013-02-21 23:51:00,74.3,66.0,30.06,ESE,118,9.9,10.5,76,0.00,,,0.00,TxWx,2013-02-22 04:51:00,
2013-02-21 23:54:00,74.4,66.0,30.07,East,96,11.1,11.1,76,0.00,,,0.00,TxWx,2013-02-22 04:54:00,
2013-02-21 23:55:00,74.2,66.0,30.07,SE,141,12.4,12.4,76,0.00,,,0.00,TxWx,2013-02-22 04:55:00,
2013-02-21 23:57:00,74.3,66.0,30.07,ESE,118,9.3,11.1,75,0.00,,,0.00,TxWx,2013-02-22 04:57:00,
2013-02-21 23:59:00,74.5,66.0,30.07,ESE,118,9.9,10.5,75,0.00,,,0.00,TxWx,2013-02-22 04:59:00,